IZ1UQG-2 Weather Reports


Display with metric or nautical units.
time (UTC)temp
F
wind
direction
speed
MPH
gust
MPH
rain 1hr
in
rain 24hr
in
rain mn
in
humidity
%
barometer
mb
20260509205506 63 259 2.0 4.0 0.00 0.00 0.00 66 1013.3
20260509205404 62 259 2.0 4.0 0.00 0.00 0.00 66 1013.3
20260509205307 62 260 2.0 5.0 0.00 0.00 0.00 66 1013.3
20260509205214 62 257 2.0 5.0 0.00 0.00 0.00 66 1013.4
20260509205104 62 255 2.0 5.0 0.00 0.00 0.00 67 1013.4
20260509205004 62 252 2.0 5.0 0.00 0.00 0.00 67 1013.4
20260509204904 62 253 3.0 6.0 0.00 0.00 0.00 67 1013.4
20260509204804 62 255 3.0 6.0 0.00 0.00 0.00 67 1013.4
20260509204704 62 253 3.0 6.0 0.00 0.00 0.00 67 1013.3
20260509204604 62 253 3.0 6.0 0.00 0.00 0.00 67 1013.4
20260509204505 62 252 4.0 6.0 0.00 0.00 0.00 67 1013.4
20260509204404 62 250 4.0 6.0 0.00 0.00 0.00 67 1013.4
20260509204207 62 248 3.0 6.0 0.00 0.00 0.00 68 1013.4
20260509204104 62 247 3.0 7.0 0.00 0.00 0.00 68 1013.4
20260509204005 62 246 3.0 7.0 0.00 0.00 0.00 68 1013.4
20260509203916 62 244 3.0 7.0 0.00 0.00 0.00 68 1013.3
20260509203804 62 243 3.0 7.0 0.00 0.00 0.00 68 1013.4
20260509203705 62 241 3.0 7.0 0.00 0.00 0.00 68 1013.3
20260509203604 62 239 3.0 7.0 0.00 0.00 0.00 68 1013.3
20260509203505 62 240 3.0 7.0 0.00 0.00 0.00 68 1013.3
20260509203404 62 239 3.0 7.0 0.00 0.00 0.00 68 1013.3
20260509203305 62 238 3.0 7.0 0.00 0.00 0.00 68 1013.3
20260509203004 62 240 3.0 6.0 0.00 0.00 0.00 68 1013.2
20260509202913 62 241 3.0 6.0 0.00 0.00 0.00 68 1013.3
20260509202804 62 241 2.0 6.0 0.00 0.00 0.00 68 1013.3
20260509202704 62 243 2.0 6.0 0.00 0.00 0.00 69 1013.2
20260509202504 62 243 3.0 7.0 0.00 0.00 0.00 69 1013.1
20260509202404 62 242 3.0 7.0 0.00 0.00 0.00 68 1013.2
20260509202306 62 241 3.0 7.0 0.00 0.00 0.00 68 1013.1
20260509202204 63 239 4.0 8.0 0.00 0.00 0.00 68 1013.0
20260509202104 63 237 4.0 8.0 0.00 0.00 0.00 68 1013.1
20260509202005 63 235 4.0 8.0 0.00 0.00 0.00 68 1013.2
20260509201907 63 233 5.0 8.0 0.00 0.00 0.00 68 1013.0
20260509201804 63 231 5.0 8.0 0.00 0.00 0.00 68 1013.0
20260509201704 63 229 5.0 8.0 0.00 0.00 0.00 68 1012.9
20260509201615 63 228 5.0 8.0 0.00 0.00 0.00 67 1013.0
20260509201505 63 225 5.0 8.0 0.00 0.00 0.00 67 1013.1
20260509201404 63 223 6.0 9.0 0.00 0.00 0.00 67 1013.0
20260509201304 63 220 6.0 9.0 0.00 0.00 0.00 67 1013.0
20260509201204 63 219 6.0 9.0 0.00 0.00 0.00 67 1013.0
20260509201104 63 218 6.0 9.0 0.00 0.00 0.00 67 1013.0
20260509201004 63 217 6.0 9.0 0.00 0.00 0.00 67 1013.0
20260509200904 63 218 5.0 9.0 0.00 0.00 0.00 67 1012.9
20260509200803 63 218 5.0 9.0 0.00 0.00 0.00 67 1013.0
20260509200704 63 218 5.0 9.0 0.00 0.00 0.00 67 1012.9
20260509200607 63 218 5.0 9.0 0.00 0.00 0.00 67 1012.9
20260509200504 63 218 5.0 9.0 0.00 0.00 0.00 67 1012.9
20260509200404 63 219 5.0 9.0 0.00 0.00 0.00 67 1012.9
20260509200316 63 221 5.0 8.0 0.00 0.00 0.00 67 1012.9
20260509200203 63 221 5.0 8.0 0.00 0.00 0.00 67 1012.9
20260509200104 63 221 5.0 7.0 0.00 0.00 0.00 67 1012.9
20260509200004 63 221 5.0 7.0 0.00 0.00 0.00 67 1012.8
20260509195904 63 221 5.0 7.0 0.00 0.00 0.00 67 1012.8
20260509195804 63 221 5.0 7.0 0.00 0.00 0.00 67 1012.8
20260509195704 63 220 5.0 7.0 0.00 0.00 0.00 67 1012.8
20260509195604 63 221 4.0 7.0 0.00 0.00 0.00 67 1012.8
20260509195504 64 221 4.0 7.0 0.00 0.00 0.00 67 1012.7
20260509195404 64 221 4.0 7.0 0.00 0.00 0.00 67 1012.6
20260509195309 64 222 4.0 7.0 0.00 0.00 0.00 67 1012.6
20260509195205 64 222 4.0 7.0 0.00 0.00 0.00 67 1012.7
20260509195104 64 222 4.0 7.0 0.00 0.00 0.00 67 1012.6
20260509195015 64 223 4.0 7.0 0.00 0.00 0.00 67 1012.6
20260509194704 64 228 4.0 7.0 0.00 0.00 0.00 67 1012.7
20260509194605 64 228 5.0 7.0 0.00 0.00 0.00 67 1012.5
20260509194505 64 229 5.0 7.0 0.00 0.00 0.00 66 1012.6
20260509194404 64 231 5.0 7.0 0.00 0.00 0.00 66 1012.5
20260509194304 64 232 4.0 7.0 0.00 0.00 0.00 66 1012.5
20260509194204 64 233 4.0 7.0 0.00 0.00 0.00 66 1012.4
20260509194104 64 234 4.0 7.0 0.00 0.00 0.00 66 1012.4
20260509194008 64 236 4.0 7.0 0.00 0.00 0.00 66 1012.4
20260509193904 64 237 4.0 7.0 0.00 0.00 0.00 66 1012.5
20260509193805 64 238 4.0 7.0 0.00 0.00 0.00 66 1012.4
20260509193716 64 237 4.0 7.0 0.00 0.00 0.00 66 1012.4
20260509193604 64 237 3.0 6.0 0.00 0.00 0.00 66 1012.4
20260509193505 64 237 3.0 6.0 0.00 0.00 0.00 66 1012.5
20260509193303 64 236 3.0 6.0 0.00 0.00 0.00 66 1012.4
20260509193204 64 236 3.0 6.0 0.00 0.00 0.00 66 1012.5
20260509193104 64 235 3.0 6.0 0.00 0.00 0.00 66 1012.4
20260509193006 64 232 3.0 6.0 0.00 0.00 0.00 66 1012.4
20260509192904 65 229 3.0 6.0 0.00 0.00 0.00 66 1012.4
20260509192803 65 229 3.0 6.0 0.00 0.00 0.00 66 1012.4
20260509192714 65 229 3.0 6.0 0.00 0.00 0.00 65 1012.4
20260509192604 65 227 4.0 6.0 0.00 0.00 0.00 65 1012.4
20260509192404 65 227 4.0 6.0 0.00 0.00 0.00 65 1012.4
20260509192204 65 227 4.0 6.0 0.00 0.00 0.00 65 1012.4
20260509192104 65 226 4.0 6.0 0.00 0.00 0.00 65 1012.4
20260509192004 65 226 4.0 6.0 0.00 0.00 0.00 65 1012.4
20260509191905 65 226 4.0 6.0 0.00 0.00 0.00 65 1012.4
20260509191804 65 225 3.0 6.0 0.00 0.00 0.00 65 1012.3
20260509191706 65 226 3.0 6.0 0.00 0.00 0.00 65 1012.4
20260509191605 65 225 3.0 5.0 0.00 0.00 0.00 65 1012.3
20260509191414 65 220 3.0 5.0 0.00 0.00 0.00 64 1012.4
20260509191304 65 215 2.0 5.0 0.00 0.00 0.00 64 1012.3
20260509191204 65 214 2.0 5.0 0.00 0.00 0.00 64 1012.4
20260509191105 65 214 2.0 5.0 0.00 0.00 0.00 64 1012.3
20260509191004 65 214 1.0 3.0 0.00 0.00 0.00 64 1012.3
20260509190904 65 213 1.0 3.0 0.00 0.00 0.00 64 1012.4
20260509190804 65 211 1.0 3.0 0.00 0.00 0.00 64 1012.4
20260509190604 66 222 1.0 3.0 0.00 0.00 0.00 63 1012.3
20260509190504 66 250 1.0 3.0 0.00 0.00 0.00 63 1012.2
20260509190406 66 270 1.0 3.0 0.00 0.00 0.00 63 1012.2
20260509190205 66 261 1.0 7.0 0.00 0.00 0.00 63 1012.3
20260509190114 66 255 2.0 7.0 0.00 0.00 0.00 63 1012.3
20260509190006 66 247 2.0 9.0 0.00 0.00 0.00 63 1012.2
20260509185905 66 242 3.0 9.0 0.00 0.00 0.00 63 1012.2
20260509185805 66 239 3.0 9.0 0.00 0.00 0.00 64 1012.2
20260509185704 66 235 4.0 9.0 0.00 0.00 0.00 64 1012.2
20260509185504 66 230 5.0 9.0 0.00 0.00 0.00 64 1012.1
20260509185404 66 227 5.0 9.0 0.00 0.00 0.00 64 1012.1
20260509185306 66 226 5.0 9.0 0.00 0.00 0.00 64 1012.2
20260509185204 66 225 5.0 9.0 0.00 0.00 0.00 64 1012.2
20260509185106 66 222 5.0 9.0 0.00 0.00 0.00 64 1012.1
20260509184904 66 219 5.0 8.0 0.00 0.00 0.00 64 1012.2
20260509184813 66 219 5.0 8.0 0.00 0.00 0.00 64 1012.2
20260509184704 66 218 5.0 8.0 0.00 0.00 0.00 64 1012.2
20260509184504 66 216 5.0 8.0 0.00 0.00 0.00 64 1012.1
20260509184404 66 215 5.0 7.0 0.00 0.00 0.00 64 1012.2
20260509184304 66 215 5.0 7.0 0.00 0.00 0.00 64 1012.0
20260509183904 67 215 4.0 7.0 0.00 0.00 0.00 64 1012.1
20260509183806 67 214 4.0 7.0 0.00 0.00 0.00 64 1012.1
20260509183604 67 215 4.0 7.0 0.00 0.00 0.00 64 1012.1
20260509183513 67 216 4.0 7.0 0.00 0.00 0.00 63 1012.1
20260509183404 67 217 4.0 7.0 0.00 0.00 0.00 63 1012.0
20260509183304 67 217 4.0 7.0 0.00 0.00 0.00 63 1012.1
20260509183104 67 216 4.0 7.0 0.00 0.00 0.00 63 1012.1
20260509183004 67 216 4.0 7.0 0.00 0.00 0.00 63 1012.0
20260509182904 67 215 4.0 8.0 0.00 0.00 0.00 63 1012.1
20260509182804 67 214 5.0 9.0 0.00 0.00 0.00 63 1012.0
20260509182704 67 213 5.0 9.0 0.00 0.00 0.00 63 1012.0
20260509182604 67 213 5.0 9.0 0.00 0.00 0.00 63 1012.0
20260509182506 67 212 5.0 9.0 0.00 0.00 0.00 64 1012.0
20260509182404 67 211 5.0 9.0 0.00 0.00 0.00 63 1012.1
20260509182306 68 210 6.0 9.0 0.00 0.00 0.00 63 1012.0
20260509182214 68 209 6.0 9.0 0.00 0.00 0.00 63 1012.1
20260509182104 68 208 6.0 9.0 0.00 0.00 0.00 63 1012.0
20260509182005 68 208 6.0 9.0 0.00 0.00 0.00 63 1012.1
20260509181804 68 208 5.0 9.0 0.00 0.00 0.00 63 1012.0
20260509181704 68 210 5.0 9.0 0.00 0.00 0.00 63 1012.0
20260509181605 68 210 5.0 9.0 0.00 0.00 0.00 62 1011.9
20260509181505 68 211 4.0 9.0 0.00 0.00 0.00 62 1011.9
20260509181404 68 213 4.0 9.0 0.00 0.00 0.00 62 1011.9
20260509181304 68 215 3.0 9.0 0.00 0.00 0.00 62 1012.0
20260509181205 69 219 3.0 8.0 0.00 0.00 0.00 62 1011.8
20260509181104 69 223 2.0 7.0 0.00 0.00 0.00 62 1011.8
20260509181005 69 227 2.0 6.0 0.00 0.00 0.00 62 1011.8
20260509180913 69 228 2.0 6.0 0.00 0.00 0.00 62 1011.8
20260509180804 69 231 2.0 6.0 0.00 0.00 0.00 62 1011.8
20260509180704 69 238 2.0 4.0 0.00 0.00 0.00 62 1011.8
20260509180604 69 238 1.0 4.0 0.00 0.00 0.00 61 1011.8
20260509180504 69 244 1.0 4.0 0.00 0.00 0.00 62 1011.8
20260509180304 69 244 1.0 4.0 0.00 0.00 0.00 61 1011.8
20260509180204 69 245 1.0 4.0 0.00 0.00 0.00 61 1011.7
20260509180104 69 246 2.0 4.0 0.00 0.00 0.00 61 1011.8
20260509180004 70 249 1.0 4.0 0.00 0.00 0.00 60 1011.7
20260509175804 70 237 2.0 4.0 0.00 0.00 0.00 60 1011.8
20260509175704 70 231 1.0 4.0 0.00 0.00 0.00 60 1011.7
20260509175615 70 229 2.0 4.0 0.00 0.00 0.00 60 1011.8
20260509175505 70 222 2.0 4.0 0.00 0.00 0.00 59 1011.8
20260509175404 70 219 1.0 4.0 0.00 0.00 0.00 59 1011.7
20260509175306 70 218 1.0 4.0 0.00 0.00 0.00 59 1011.8
20260509175204 70 215 1.0 4.0 0.00 0.00 0.00 59 1011.9
20260509175104 70 215 1.0 4.0 0.00 0.00 0.00 59 1011.8
20260509175004 70 220 1.0 4.0 0.00 0.00 0.00 58 1011.7
20260509174904 70 222 1.0 4.0 0.00 0.00 0.00 58 1011.9
20260509174804 70 227 1.0 4.0 0.00 0.00 0.00 58 1011.9
20260509174704 70 235 1.0 4.0 0.00 0.00 0.00 58 1011.9
20260509174607 71 240 1.0 4.0 0.00 0.00 0.00 57 1011.9
20260509174404 71 240 1.0 3.0 0.00 0.00 0.00 57 1011.9
20260509174315 71 236 1.0 3.0 0.00 0.00 0.00 57 1011.8
20260509174204 71 233 1.0 3.0 0.00 0.00 0.00 57 1011.8
20260509174104 71 228 2.0 3.0 0.00 0.00 0.00 57 1011.8
20260509174004 70 223 2.0 3.0 0.00 0.00 0.00 57 1011.8
20260509173904 71 221 2.0 3.0 0.00 0.00 0.00 57 1011.8
20260509173804 70 218 2.0 3.0 0.00 0.00 0.00 57 1011.8
20260509173704 70 214 2.0 3.0 0.00 0.00 0.00 56 1011.9
20260509173604 70 212 2.0 3.0 0.00 0.00 0.00 57 1011.9
20260509173504 70 212 2.0 3.0 0.00 0.00 0.00 57 1011.8
20260509173404 70 212 2.0 3.0 0.00 0.00 0.00 57 1011.9
20260509173306 71 213 2.0 3.0 0.00 0.00 0.00 57 1011.8
20260509173204 71 215 2.0 3.0 0.00 0.00 0.00 57 1011.8
20260509173104 71 216 2.0 3.0 0.00 0.00 0.00 57 1011.8
20260509173014 71 218 2.0 3.0 0.00 0.00 0.00 56 1011.9
20260509172904 71 224 2.0 3.0 0.00 0.00 0.00 56 1011.9
20260509172804 71 229 2.0 3.0 0.00 0.00 0.00 56 1011.9
20260509172704 71 234 1.0 3.0 0.00 0.00 0.00 56 1011.9
20260509172504 71 240 1.0 3.0 0.00 0.00 0.00 56 1011.9
20260509172306 71 254 1.0 3.0 0.00 0.00 0.00 55 1011.9
20260509172204 71 266 1.0 2.0 0.00 0.00 0.00 55 1011.9
20260509172104 71 277 1.0 2.0 0.00 0.00 0.00 55 1011.9
20260509172006 71 291 1.0 2.0 0.00 0.00 0.00 55 1011.9
20260509171904 71 298 1.0 3.0 0.00 0.00 0.00 55 1011.9
20260509171804 71 296 1.0 3.0 0.00 0.00 0.00 55 1011.9
20260509171714 71 299 1.0 3.0 0.00 0.00 0.00 55 1011.8
20260509171604 71 302 1.0 3.0 0.00 0.00 0.00 55 1011.9
20260509171505 71 303 1.0 3.0 0.00 0.00 0.00 55 1011.8
20260509171404 71 301 1.0 3.0 0.00 0.00 0.00 55 1011.8
20260509171304 71 300 2.0 3.0 0.00 0.00 0.00 55 1011.8
20260509171204 71 300 2.0 3.0 0.00 0.00 0.00 55 1011.8
20260509171004 71 299 2.0 3.0 0.00 0.00 0.00 54 1011.8
20260509170904 71 298 1.0 3.0 0.00 0.00 0.00 54 1011.8
20260509170603 72 267 1.0 3.0 0.00 0.00 0.00 53 1011.8
20260509170505 72 246 1.0 3.0 0.00 0.00 0.00 53 1011.7
20260509170413 72 227 1.0 3.0 0.00 0.00 0.00 53 1011.8
20260509170304 72 211 1.0 4.0 0.00 0.00 0.00 51 1011.7
20260509170204 72 205 2.0 4.0 0.00 0.00 0.00 50 1011.8
20260509170104 72 197 2.0 4.0 0.00 0.00 0.00 49 1011.7
20260509170004 72 193 2.0 4.0 0.00 0.00 0.00 48 1011.7
20260509165905 72 187 2.0 4.0 0.00 0.00 0.00 48 1011.8
20260509165803 72 183 2.0 4.0 0.00 0.00 0.00 44 1011.7
20260509165704 72 176 1.0 4.0 0.00 0.00 0.00 44 1011.7
20260509165603 72 170 1.0 4.0 0.00 0.00 0.00 44 1011.8
20260509165504 72 166 1.0 4.0 0.00 0.00 0.00 44 1011.7
20260509165306 72 148 1.0 3.0 0.00 0.00 0.00 44 1011.7
20260509165204 73 132 1.0 3.0 0.00 0.00 0.00 45 1011.6
20260509165113 73 124 1.0 3.0 0.00 0.00 0.00 45 1011.8
20260509165004 73 116 1.0 4.0 0.00 0.00 0.00 45 1011.6
20260509164905 73 116 1.0 4.0 0.00 0.00 0.00 46 1011.7
20260509164804 73 116 1.0 4.0 0.00 0.00 0.00 45 1011.7
20260509164704 73 117 1.0 4.0 0.00 0.00 0.00 45 1011.7
20260509164604 73 114 1.0 4.0 0.00 0.00 0.00 45 1011.8
20260509164504 72 116 1.0 4.0 0.00 0.00 0.00 44 1011.7
20260509164404 72 113 1.0 5.0 0.00 0.00 0.00 44 1011.7
20260509164304 73 111 2.0 5.0 0.00 0.00 0.00 44 1011.7
20260509164204 73 116 2.0 5.0 0.00 0.00 0.00 44 1011.8
20260509164107 73 122 2.0 6.0 0.00 0.00 0.00 43 1011.8
20260509164004 73 132 2.0 6.0 0.00 0.00 0.00 44 1011.8
20260509163904 73 137 2.0 6.0 0.00 0.00 0.00 44 1011.7
20260509163815 73 140 3.0 6.0 0.00 0.00 0.00 43 1011.8
20260509163604 72 150 3.0 6.0 0.00 0.00 0.00 43 1011.7
20260509163505 72 158 4.0 6.0 0.00 0.00 0.00 44 1011.9
20260509163404 72 166 4.0 7.0 0.00 0.00 0.00 45 1011.9
20260509163204 72 172 5.0 7.0 0.00 0.00 0.00 44 1011.9
20260509163105 72 177 5.0 7.0 0.00 0.00 0.00 44 1011.9
20260509163004 72 178 4.0 7.0 0.00 0.00 0.00 44 1011.9
20260509162813 72 186 4.0 7.0 0.00 0.00 0.00 45 1011.9
20260509162704 72 188 4.0 7.0 0.00 0.00 0.00 45 1012.0
20260509162504 72 192 4.0 7.0 0.00 0.00 0.00 45 1011.9
20260509162405 72 193 3.0 7.0 0.00 0.00 0.00 46 1012.0
20260509162307 72 191 3.0 7.0 0.00 0.00 0.00 46 1011.9
20260509162004 72 184 3.0 6.0 0.00 0.00 0.00 47 1012.0
20260509161904 72 184 4.0 6.0 0.00 0.00 0.00 47 1012.0
20260509161805 72 181 3.0 6.0 0.00 0.00 0.00 46 1012.0
20260509161704 72 178 3.0 6.0 0.00 0.00 0.00 46 1012.0
20260509161514 72 167 4.0 6.0 0.00 0.00 0.00 46 1012.1
20260509161404 72 163 4.0 6.0 0.00 0.00 0.00 46 1012.1
20260509161304 72 163 4.0 8.0 0.00 0.00 0.00 46 1012.1
20260509161204 72 162 4.0 8.0 0.00 0.00 0.00 46 1012.1
20260509161104 72 160 3.0 8.0 0.00 0.00 0.00 46 1012.1
20260509161004 72 156 3.0 8.0 0.00 0.00 0.00 46 1012.0
20260509160904 72 149 3.0 8.0 0.00 0.00 0.00 46 1012.0
20260509160804 73 149 3.0 8.0 0.00 0.00 0.00 46 1012.0
20260509160704 73 148 3.0 8.0 0.00 0.00 0.00 46 1012.0
20260509160604 73 151 3.0 8.0 0.00 0.00 0.00 46 1012.1
20260509160514 73 151 3.0 8.0 0.00 0.00 0.00 47 1012.1
20260509160304 73 158 3.0 7.0 0.00 0.00 0.00 47 1012.1
20260509160203 73 158 3.0 7.0 0.00 0.00 0.00 47 1012.1
20260509160104 73 159 3.0 7.0 0.00 0.00 0.00 46 1012.1
20260509160005 73 165 3.0 7.0 0.00 0.00 0.00 47 1012.1
20260509155803 73 171 3.0 6.0 0.00 0.00 0.00 47 1012.2
20260509155704 73 174 3.0 6.0 0.00 0.00 0.00 47 1012.1
20260509155604 73 176 3.0 6.0 0.00 0.00 0.00 47 1012.1
20260509155506 73 182 3.0 6.0 0.00 0.00 0.00 46 1012.1
20260509155404 73 184 3.0 6.0 0.00 0.00 0.00 46 1012.0
20260509155306 73 183 3.0 6.0 0.00 0.00 0.00 45 1012.1
20260509155213 73 186 3.0 6.0 0.00 0.00 0.00 46 1012.1
20260509155104 73 186 3.0 7.0 0.00 0.00 0.00 46 1012.2
20260509155004 73 185 3.0 7.0 0.00 0.00 0.00 45 1012.1
20260509154904 73 186 3.0 7.0 0.00 0.00 0.00 47 1012.1
20260509154804 73 187 3.0 7.0 0.00 0.00 0.00 48 1012.1
20260509154704 73 187 3.0 7.0 0.00 0.00 0.00 47 1012.1
20260509154404 72 186 4.0 7.0 0.00 0.00 0.00 47 1012.2
20260509154304 72 185 4.0 8.0 0.00 0.00 0.00 47 1012.2
20260509154207 72 185 4.0 8.0 0.00 0.00 0.00 47 1012.1
20260509154103 72 185 4.0 9.0 0.00 0.00 0.00 48 1012.2
20260509154004 72 187 4.0 9.0 0.00 0.00 0.00 47 1012.2
20260509153916 72 187 5.0 9.0 0.00 0.00 0.00 47 1012.1
20260509153703 72 186 5.0 9.0 0.00 0.00 0.00 48 1012.3
20260509153605 72 187 5.0 9.0 0.00 0.00 0.00 47 1012.3
20260509153504 72 189 5.0 9.0 0.00 0.00 0.00 48 1012.2
20260509153404 72 186 5.0 9.0 0.00 0.00 0.00 48 1012.3
20260509153304 72 186 5.0 9.0 0.00 0.00 0.00 48 1012.3
20260509153206 72 185 5.0 12.0 0.00 0.00 0.00 47 1012.2
20260509153104 72 182 5.0 12.0 0.00 0.00 0.00 48 1012.2
20260509153004 72 178 5.0 12.0 0.00 0.00 0.00 47 1012.3
20260509152914 72 177 6.0 12.0 0.00 0.00 0.00 47 1012.2
20260509152803 72 175 6.0 12.0 0.00 0.00 0.00 47 1012.2
20260509152705 72 174 5.0 12.0 0.00 0.00 0.00 47 1012.2
20260509152604 72 172 6.0 12.0 0.00 0.00 0.00 47 1012.2
20260509152505 72 171 6.0 12.0 0.00 0.00 0.00 47 1012.2
20260509152306 72 168 5.0 12.0 0.00 0.00 0.00 47 1012.2
20260509152104 72 165 5.0 9.0 0.00 0.00 0.00 46 1012.2
20260509151914 72 167 5.0 12.0 0.00 0.00 0.00 47 1012.3
20260509151705 72 168 5.0 12.0 0.00 0.00 0.00 47 1012.2
20260509151404 72 167 6.0 12.0 0.00 0.00 0.00 47 1012.2
20260509151304 72 167 6.0 12.0 0.00 0.00 0.00 47 1012.1
20260509151205 72 167 6.0 12.0 0.00 0.00 0.00 47 1012.1
20260509151104 72 166 7.0 12.0 0.00 0.00 0.00 47 1012.0
20260509150914 72 166 6.0 12.0 0.00 0.00 0.00 47 1012.2
20260509150804 72 166 6.0 12.0 0.00 0.00 0.00 47 1012.2
20260509150704 72 167 6.0 12.0 0.00 0.00 0.00 47 1012.1
20260509150604 72 170 6.0 12.0 0.00 0.00 0.00 46 1012.1
20260509150504 72 170 6.0 12.0 0.00 0.00 0.00 47 1012.2
20260509150404 73 167 5.0 12.0 0.00 0.00 0.00 46 1012.2
20260509150304 73 165 5.0 12.0 0.00 0.00 0.00 47 1012.1
20260509150204 73 168 5.0 12.0 0.00 0.00 0.00 46 1012.4
20260509150104 73 173 4.0 12.0 0.00 0.00 0.00 46 1012.1
20260509150004 73 174 3.0 7.0 0.00 0.00 0.00 45 1012.1
20260509145913 73 174 3.0 7.0 0.00 0.00 0.00 44 1012.2
20260509145704 73 185 3.0 7.0 0.00 0.00 0.00 44 1012.1
20260509145604 73 192 3.0 6.0 0.00 0.00 0.00 44 1012.1
20260509145505 74 200 3.0 6.0 0.00 0.00 0.00 44 1012.1
20260509145104 74 201 4.0 9.0 0.00 0.00 0.00 45 1012.1
20260509145004 74 199 4.0 9.0 0.00 0.00 0.00 44 1012.0
20260509144904 74 200 4.0 9.0 0.00 0.00 0.00 44 1012.1
20260509144612 73 188 4.0 9.0 0.00 0.00 0.00 45 1012.1
20260509144504 73 186 4.0 9.0 0.00 0.00 0.00 45 1012.1
20260509144204 74 179 3.0 9.0 0.00 0.00 0.00 43 1012.0
20260509144104 74 165 2.0 7.0 0.00 0.00 0.00 43 1012.1
20260509144004 74 147 2.0 5.0 0.00 0.00 0.00 42 1012.0
20260509143904 74 148 2.0 5.0 0.00 0.00 0.00 42 1012.0
20260509143804 74 150 2.0 5.0 0.00 0.00 0.00 41 1012.0
20260509143606 74 163 2.0 6.0 0.00 0.00 0.00 41 1012.0
20260509143504 74 169 2.0 6.0 0.00 0.00 0.00 41 1012.0
20260509143403 74 178 2.0 6.0 0.00 0.00 0.00 40 1012.1
20260509143314 74 193 2.0 6.0 0.00 0.00 0.00 41 1012.1
20260509143204 74 194 3.0 6.0 0.00 0.00 0.00 41 1012.1
20260509143105 74 193 2.0 6.0 0.00 0.00 0.00 41 1012.0
20260509142903 75 194 2.0 6.0 0.00 0.00 0.00 41 1012.0
20260509142804 74 195 2.0 6.0 0.00 0.00 0.00 41 1012.0
20260509142704 74 199 2.0 6.0 0.00 0.00 0.00 41 1012.1
20260509142605 74 187 2.0 6.0 0.00 0.00 0.00 41 1012.2
20260509142505 74 181 2.0 7.0 0.00 0.00 0.00 40 1012.1
20260509142404 74 174 2.0 7.0 0.00 0.00 0.00 40 1012.1
20260509142312 75 161 2.0 7.0 0.00 0.00 0.00 40 1012.1
20260509142203 75 149 2.0 7.0 0.00 0.00 0.00 40 1012.1
20260509142103 75 153 2.0 7.0 0.00 0.00 0.00 40 1012.0
20260509141904 75 158 2.0 7.0 0.00 0.00 0.00 39 1012.1
20260509141804 75 150 2.0 7.0 0.00 0.00 0.00 39 1012.1
20260509141704 75 142 2.0 7.0 0.00 0.00 0.00 39 1012.1
20260509141604 75 133 2.0 7.0 0.00 0.00 0.00 39 1012.1
20260509141504 75 138 2.0 6.0 0.00 0.00 0.00 40 1012.1
20260509141404 75 138 2.0 6.0 0.00 0.00 0.00 39 1012.1
20260509141304 75 134 2.0 6.0 0.00 0.00 0.00 39 1012.1
20260509141204 75 131 2.0 6.0 0.00 0.00 0.00 39 1012.1
20260509141103 75 124 2.0 6.0 0.00 0.00 0.00 39 1012.1
20260509140904 75 112 3.0 10.0 0.00 0.00 0.00 38 1012.2
20260509140716 74 105 4.0 10.0 0.00 0.00 0.00 39 1012.3
20260509140404 74 95 3.0 10.0 0.00 0.00 0.00 38 1012.2
20260509140204 74 100 4.0 10.0 0.00 0.00 0.00 37 1012.2
20260509140104 74 102 4.0 10.0 0.00 0.00 0.00 37 1012.3
20260509140006 74 103 4.0 10.0 0.00 0.00 0.00 36 1012.3
20260509135904 74 104 4.0 9.0 0.00 0.00 0.00 36 1012.3
20260509135803 75 110 4.0 9.0 0.00 0.00 0.00 35 1012.4
20260509135715 75 111 3.0 8.0 0.00 0.00 0.00 36 1012.3
20260509135604 75 117 3.0 8.0 0.00 0.00 0.00 37 1012.4
20260509135504 75 129 3.0 8.0 0.00 0.00 0.00 37 1012.3
20260509135404 75 133 3.0 8.0 0.00 0.00 0.00 37 1012.3
20260509135306 75 132 3.0 8.0 0.00 0.00 0.00 37 1012.4
20260509135104 75 125 3.0 8.0 0.00 0.00 0.00 38 1012.5
20260509135007 75 120 3.0 8.0 0.00 0.00 0.00 38 1012.4
20260509134903 75 116 2.0 7.0 0.00 0.00 0.00 38 1012.5
20260509134804 75 118 2.0 7.0 0.00 0.00 0.00 37 1012.4
20260509134716 75 121 3.0 7.0 0.00 0.00 0.00 37 1012.5
20260509134604 75 116 3.0 7.0 0.00 0.00 0.00 36 1012.5
20260509134504 75 103 2.0 7.0 0.00 0.00 0.00 36 1012.5
20260509134404 75 99 3.0 7.0 0.00 0.00 0.00 37 1012.5
20260509134304 74 104 3.0 7.0 0.00 0.00 0.00 37 1012.7
20260509134204 74 107 3.0 7.0 0.00 0.00 0.00 37 1012.6
20260509134104 74 118 2.0 7.0 0.00 0.00 0.00 37 1012.6
20260509134005 74 122 2.0 7.0 0.00 0.00 0.00 37 1012.7
20260509133904 74 114 3.0 8.0 0.00 0.00 0.00 37 1012.7
20260509133804 74 111 3.0 8.0 0.00 0.00 0.00 37 1012.7
20260509133712 74 118 3.0 8.0 0.00 0.00 0.00 37 1012.7
20260509133604 74 121 3.0 8.0 0.00 0.00 0.00 37 1012.7
20260509133511 74 130 3.0 8.0 0.00 0.00 0.00 37 1012.7
20260509133404 74 140 4.0 8.0 0.00 0.00 0.00 37 1012.7
20260509133305 74 143 4.0 10.0 0.00 0.00 0.00 37 1012.7
20260509133204 74 143 4.0 10.0 0.00 0.00 0.00 37 1012.7
20260509133104 74 138 4.0 10.0 0.00 0.00 0.00 37 1012.7
20260509133005 74 138 4.0 10.0 0.00 0.00 0.00 37 1012.7
20260509132904 74 147 4.0 10.0 0.00 0.00 0.00 37 1012.8
20260509132713 74 158 4.0 10.0 0.00 0.00 0.00 39 1012.8
20260509132505 75 158 5.0 10.0 0.00 0.00 0.00 38 1012.8
20260509132404 75 165 5.0 10.0 0.00 0.00 0.00 39 1012.8
20260509132306 75 174 5.0 13.0 0.00 0.00 0.00 39 1012.7
20260509132204 75 175 6.0 13.0 0.00 0.00 0.00 38 1012.8
20260509132104 75 179 6.0 13.0 0.00 0.00 0.00 39 1012.8
20260509132005 74 184 6.0 13.0 0.00 0.00 0.00 40 1012.9
20260509131904 74 190 6.0 13.0 0.00 0.00 0.00 39 1012.7
20260509131804 74 192 6.0 13.0 0.00 0.00 0.00 39 1012.8
20260509131714 75 189 5.0 13.0 0.00 0.00 0.00 39 1012.8
20260509131603 75 190 5.0 13.0 0.00 0.00 0.00 39 1012.8
20260509131504 75 193 5.0 13.0 0.00 0.00 0.00 38 1012.7
20260509131404 75 187 4.0 13.0 0.00 0.00 0.00 39 1012.7
20260509131303 75 166 4.0 11.0 0.00 0.00 0.00 39 1012.8
20260509131205 75 157 3.0 11.0 0.00 0.00 0.00 40 1012.7
20260509131104 75 111 3.0 7.0 0.00 0.00 0.00 40 1012.8
20260509131004 74 102 3.0 7.0 0.00 0.00 0.00 40 1012.7
20260509130712 75 81 3.0 10.0 0.00 0.00 0.00 39 1012.7
20260509130604 75 79 4.0 10.0 0.00 0.00 0.00 40 1012.7
20260509130504 75 76 4.0 10.0 0.00 0.00 0.00 40 1012.7
20260509130404 74 73 4.0 10.0 0.00 0.00 0.00 41 1012.8
20260509130304 74 73 4.0 10.0 0.00 0.00 0.00 41 1012.9
20260509130104 74 71 4.0 10.0 0.00 0.00 0.00 41 1012.9
20260509130005 73 72 4.0 10.0 0.00 0.00 0.00 41 1012.9
20260509125904 73 75 4.0 10.0 0.00 0.00 0.00 40 1012.8
20260509125713 74 73 4.0 9.0 0.00 0.00 0.00 40 1012.8
20260509125505 74 82 3.0 9.0 0.00 0.00 0.00 41 1012.9
20260509125403 74 90 3.0 9.0 0.00 0.00 0.00 41 1012.9
20260509125307 74 90 3.0 9.0 0.00 0.00 0.00 41 1012.9
20260509125204 74 91 4.0 9.0 0.00 0.00 0.00 41 1012.9
20260509125104 74 91 4.0 9.0 0.00 0.00 0.00 42 1013.0
20260509125005 73 90 4.0 9.0 0.00 0.00 0.00 41 1013.0
20260509124904 74 87 3.0 8.0 0.00 0.00 0.00 40 1012.9
20260509124804 74 79 4.0 8.0 0.00 0.00 0.00 40 1013.0
20260509124604 74 77 4.0 8.0 0.00 0.00 0.00 41 1013.0
20260509124504 74 78 4.0 8.0 0.00 0.00 0.00 41 1013.0
20260509124412 73 75 4.0 8.0 0.00 0.00 0.00 41 1013.0
20260509124204 73 74 4.0 8.0 0.00 0.00 0.00 41 1013.1
20260509124103 73 76 5.0 8.0 0.00 0.00 0.00 40 1012.9
20260509124004 73 71 4.0 8.0 0.00 0.00 0.00 40 1012.9
20260509123904 73 68 4.0 8.0 0.00 0.00 0.00 40 1012.9
20260509123804 73 70 4.0 8.0 0.00 0.00 0.00 40 1013.0
20260509123704 73 69 5.0 8.0 0.00 0.00 0.00 40 1013.0
20260509123604 73 67 5.0 9.0 0.00 0.00 0.00 39 1013.1
20260509123504 73 66 5.0 9.0 0.00 0.00 0.00 39 1013.0
20260509123405 73 65 5.0 9.0 0.00 0.00 0.00 40 1013.1
20260509123304 73 61 5.0 9.0 0.00 0.00 0.00 41 1013.1
20260509123204 73 56 5.0 9.0 0.00 0.00 0.00 41 1012.9
20260509123004 73 64 5.0 9.0 0.00 0.00 0.00 41 1012.9
20260509122904 73 69 5.0 10.0 0.00 0.00 0.00 41 1013.0
20260509122803 73 74 6.0 10.0 0.00 0.00 0.00 41 1013.0
20260509122604 72 79 6.0 10.0 0.00 0.00 0.00 41 1013.1
20260509122504 72 79 6.0 10.0 0.00 0.00 0.00 42 1013.1
20260509122404 72 81 6.0 10.0 0.00 0.00 0.00 41 1013.1
20260509122306 72 81 6.0 10.0 0.00 0.00 0.00 41 1013.1
20260509122204 72 83 6.0 10.0 0.00 0.00 0.00 40 1013.2
20260509122113 72 83 6.0 10.0 0.00 0.00 0.00 41 1013.2
20260509122004 72 82 6.0 10.0 0.00 0.00 0.00 41 1013.1
20260509121804 72 81 5.0 9.0 0.00 0.00 0.00 41 1013.2
20260509121704 72 81 5.0 9.0 0.00 0.00 0.00 40 1013.3
20260509121604 72 83 5.0 9.0 0.00 0.00 0.00 40 1013.3
20260509121504 72 84 5.0 8.0 0.00 0.00 0.00 40 1013.2
20260509121404 72 85 5.0 8.0 0.00 0.00 0.00 41 1013.2
20260509121304 72 86 5.0 8.0 0.00 0.00 0.00 41 1013.3
20260509121106 72 88 5.0 8.0 0.00 0.00 0.00 40 1013.3
20260509121004 72 89 5.0 8.0 0.00 0.00 0.00 40 1013.2
20260509120904 72 88 4.0 8.0 0.00 0.00 0.00 40 1013.2
20260509120815 72 88 4.0 8.0 0.00 0.00 0.00 40 1013.2
20260509120704 72 89 4.0 8.0 0.00 0.00 0.00 40 1013.3
20260509120604 72 88 4.0 8.0 0.00 0.00 0.00 40 1013.2
20260509120504 73 88 4.0 8.0 0.00 0.00 0.00 39 1013.3
20260509120404 73 86 3.0 8.0 0.00 0.00 0.00 40 1013.2
20260509120304 73 82 3.0 8.0 0.00 0.00 0.00 40 1013.2
20260509120204 73 82 3.0 8.0 0.00 0.00 0.00 40 1013.3
20260509120004 73 75 3.0 8.0 0.00 0.00 0.00 40 1013.3
20260509115904 73 72 3.0 8.0 0.00 0.00 0.00 40 1013.3
20260509115814 73 69 3.0 8.0 0.00 0.00 0.00 40 1013.3
20260509115704 73 65 3.0 8.0 0.00 0.00 0.00 40 1013.3
20260509115604 73 64 3.0 8.0 0.00 0.00 0.00 40 1013.3
20260509115504 72 65 4.0 8.0 0.00 0.00 0.00 40 1013.3
20260509115404 72 66 4.0 8.0 0.00 0.00 0.00 41 1013.4
20260509115307 72 69 4.0 9.0 0.00 0.00 0.00 41 1013.4
20260509115204 72 70 5.0 9.0 0.00 0.00 0.00 41 1013.4
20260509115106 71 70 5.0 9.0 0.00 0.00 0.00 41 1013.4
20260509115005 71 71 5.0 9.0 0.00 0.00 0.00 42 1013.4
20260509114905 71 72 5.0 9.0 0.00 0.00 0.00 42 1013.4
20260509114704 71 75 5.0 9.0 0.00 0.00 0.00 41 1013.4
20260509114604 71 73 5.0 9.0 0.00 0.00 0.00 42 1013.4
20260509114504 71 73 5.0 9.0 0.00 0.00 0.00 42 1013.5
20260509114304 71 70 5.0 9.0 0.00 0.00 0.00 42 1013.4
20260509114204 71 69 5.0 9.0 0.00 0.00 0.00 43 1013.5
20260509114105 71 72 5.0 9.0 0.00 0.00 0.00 43 1013.5
20260509114004 71 74 5.0 9.0 0.00 0.00 0.00 43 1013.6
20260509113903 71 77 5.0 9.0 0.00 0.00 0.00 43 1013.6
20260509113814 71 80 5.0 9.0 0.00 0.00 0.00 42 1013.6
20260509113604 71 79 5.0 10.0 0.00 0.00 0.00 41 1013.6
20260509113404 72 79 5.0 10.0 0.00 0.00 0.00 43 1013.6
20260509113305 72 80 5.0 10.0 0.00 0.00 0.00 44 1013.7
20260509113204 72 78 5.0 10.0 0.00 0.00 0.00 44 1013.7
20260509113104 72 75 5.0 11.0 0.00 0.00 0.00 44 1013.7
20260509113004 71 76 5.0 11.0 0.00 0.00 0.00 45 1013.8
20260509112903 71 76 5.0 11.0 0.00 0.00 0.00 44 1013.7
20260509112705 71 77 5.0 11.0 0.00 0.00 0.00 45 1013.7
20260509112604 71 77 5.0 11.0 0.00 0.00 0.00 44 1013.7
20260509112504 72 78 4.0 11.0 0.00 0.00 0.00 43 1013.7
20260509112404 72 81 4.0 11.0 0.00 0.00 0.00 44 1013.7
20260509112306 72 84 4.0 11.0 0.00 0.00 0.00 44 1013.7
20260509112204 72 85 5.0 11.0 0.00 0.00 0.00 44 1013.8
20260509112103 72 87 5.0 11.0 0.00 0.00 0.00 44 1013.8
20260509112004 72 88 5.0 11.0 0.00 0.00 0.00 45 1014.0
20260509111904 72 86 5.0 11.0 0.00 0.00 0.00 45 1013.8
20260509111812 72 82 4.0 11.0 0.00 0.00 0.00 45 1013.9
20260509111704 72 82 4.0 11.0 0.00 0.00 0.00 46 1013.8
20260509111504 71 86 5.0 11.0 0.00 0.00 0.00 46 1014.0
20260509111304 71 88 5.0 11.0 0.00 0.00 0.00 45 1014.0
20260509111204 71 87 4.0 10.0 0.00 0.00 0.00 46 1013.9
20260509111104 71 85 5.0 9.0 0.00 0.00 0.00 47 1014.0
20260509111004 71 84 5.0 9.0 0.00 0.00 0.00 48 1014.0
20260509110904 71 84 5.0 10.0 0.00 0.00 0.00 48 1014.1
20260509110604 71 88 5.0 11.0 0.00 0.00 0.00 47 1014.1
20260509110405 70 82 5.0 11.0 0.00 0.00 0.00 49 1014.2
20260509110304 70 84 5.0 11.0 0.00 0.00 0.00 48 1014.3
20260509110204 70 86 5.0 11.0 0.00 0.00 0.00 48 1014.2
20260509110104 70 86 5.0 11.0 0.00 0.00 0.00 49 1014.3
20260509110004 70 87 5.0 11.0 0.00 0.00 0.00 48 1014.2
20260509105904 71 88 5.0 11.0 0.00 0.00 0.00 47 1014.2
20260509105704 71 92 5.0 10.0 0.00 0.00 0.00 48 1014.3
20260509105604 71 95 5.0 10.0 0.00 0.00 0.00 48 1014.2
20260509105515 71 96 5.0 10.0 0.00 0.00 0.00 48 1014.2
20260509105403 70 97 5.0 10.0 0.00 0.00 0.00 48 1014.4
20260509105306 70 100 5.0 10.0 0.00 0.00 0.00 48 1014.3
20260509105204 71 101 5.0 10.0 0.00 0.00 0.00 48 1014.3
20260509105104 71 104 5.0 10.0 0.00 0.00 0.00 48 1014.4
20260509105004 71 103 5.0 10.0 0.00 0.00 0.00 48 1014.4
20260509104904 71 100 5.0 10.0 0.00 0.00 0.00 47 1014.3
20260509104806 71 95 4.0 9.0 0.00 0.00 0.00 48 1014.4
20260509104704 71 95 4.0 8.0 0.00 0.00 0.00 48 1014.5
20260509104604 70 92 4.0 8.0 0.00 0.00 0.00 49 1014.5
20260509104404 70 90 5.0 10.0 0.00 0.00 0.00 48 1014.5
20260509104203 70 86 5.0 11.0 0.00 0.00 0.00 49 1014.4
20260509104108 70 88 5.0 11.0 0.00 0.00 0.00 49 1014.5
20260509104004 70 90 5.0 11.0 0.00 0.00 0.00 49 1014.5
20260509103804 70 90 6.0 11.0 0.00 0.00 0.00 49 1014.6
20260509103704 69 90 6.0 11.0 0.00 0.00 0.00 50 1014.6
20260509103604 69 90 6.0 11.0 0.00 0.00 0.00 49 1014.6
20260509103504 69 89 6.0 11.0 0.00 0.00 0.00 49 1014.6
20260509103404 69 89 6.0 11.0 0.00 0.00 0.00 49 1014.7
20260509103104 69 81 4.0 10.0 0.00 0.00 0.00 51 1014.7
20260509103004 69 81 4.0 10.0 0.00 0.00 0.00 51 1014.7
20260509102904 69 81 4.0 10.0 0.00 0.00 0.00 51 1014.7
20260509102804 69 80 4.0 10.0 0.00 0.00 0.00 51 1014.8
20260509102604 70 79 3.0 9.0 0.00 0.00 0.00 50 1014.7
20260509102504 70 79 3.0 9.0 0.00 0.00 0.00 52 1014.8
20260509102404 69 85 3.0 9.0 0.00 0.00 0.00 52 1014.8
20260509102306 69 87 3.0 9.0 0.00 0.00 0.00 53 1014.9
20260509102205 69 90 4.0 9.0 0.00 0.00 0.00 52 1014.9
20260509102103 69 90 4.0 9.0 0.00 0.00 0.00 52 1014.9
20260509102004 69 87 5.0 9.0 0.00 0.00 0.00 51 1014.9
20260509101913 69 88 5.0 9.0 0.00 0.00 0.00 51 1014.8
20260509101804 69 90 4.0 9.0 0.00 0.00 0.00 52 1015.0
20260509101704 69 87 4.0 9.0 0.00 0.00 0.00 52 1014.9
20260509101603 69 88 4.0 9.0 0.00 0.00 0.00 52 1014.9
20260509101504 69 88 5.0 9.0 0.00 0.00 0.00 52 1014.9
20260509101404 69 85 5.0 9.0 0.00 0.00 0.00 52 1015.0
20260509101304 68 84 5.0 9.0 0.00 0.00 0.00 52 1015.0
20260509101204 68 82 5.0 9.0 0.00 0.00 0.00 51 1014.9
20260509101104 69 82 4.0 9.0 0.00 0.00 0.00 51 1014.9
20260509101005 69 83 4.0 9.0 0.00 0.00 0.00 51 1014.9
20260509100913 69 87 3.0 9.0 0.00 0.00 0.00 52 1014.9
20260509100803 69 89 3.0 9.0 0.00 0.00 0.00 52 1014.9
20260509100704 69 90 3.0 9.0 0.00 0.00 0.00 52 1014.9
20260509100604 69 89 3.0 9.0 0.00 0.00 0.00 51 1014.9
20260509100504 69 90 3.0 8.0 0.00 0.00 0.00 49 1014.8
20260509100404 69 91 2.0 7.0 0.00 0.00 0.00 50 1014.8
20260509100204 70 95 2.0 9.0 0.00 0.00 0.00 51 1014.9
20260509100104 70 95 3.0 9.0 0.00 0.00 0.00 50 1014.9
20260509100005 69 93 3.0 9.0 0.00 0.00 0.00 50 1014.9
20260509095907 69 91 3.0 9.0 0.00 0.00 0.00 50 1014.8
20260509095704 69 96 3.0 9.0 0.00 0.00 0.00 51 1014.9
20260509095504 69 99 3.0 9.0 0.00 0.00 0.00 51 1014.9
20260509095404 69 98 3.0 9.0 0.00 0.00 0.00 51 1015.0
20260509095306 69 101 3.0 9.0 0.00 0.00 0.00 51 1014.9
20260509095204 69 102 3.0 7.0 0.00 0.00 0.00 51 1014.9
20260509095004 69 105 3.0 7.0 0.00 0.00 0.00 51 1015.0
20260509094804 69 102 3.0 8.0 0.00 0.00 0.00 50 1015.0
20260509094704 69 99 3.0 8.0 0.00 0.00 0.00 50 1015.0
20260509094613 69 100 3.0 8.0 0.00 0.00 0.00 50 1015.0
20260509094504 69 92 3.0 8.0 0.00 0.00 0.00 50 1015.0
20260509094404 69 92 3.0 8.0 0.00 0.00 0.00 51 1015.0
20260509094304 69 92 3.0 8.0 0.00 0.00 0.00 51 1014.9
20260509094204 69 92 4.0 8.0 0.00 0.00 0.00 51 1015.0
20260509094004 68 94 4.0 8.0 0.00 0.00 0.00 51 1015.0
20260509093905 68 96 4.0 8.0 0.00 0.00 0.00 52 1015.1
20260509093704 67 93 4.0 8.0 0.00 0.00 0.00 51 1015.0
20260509093612 68 90 4.0 8.0 0.00 0.00 0.00 51 1015.0
20260509093504 68 91 4.0 8.0 0.00 0.00 0.00 51 1015.0
20260509093404 68 90 4.0 8.0 0.00 0.00 0.00 51 1015.0
20260509093304 68 92 4.0 8.0 0.00 0.00 0.00 52 1015.1
20260509093204 67 91 4.0 8.0 0.00 0.00 0.00 51 1015.2
20260509093104 67 91 4.0 8.0 0.00 0.00 0.00 52 1015.1
20260509093004 67 91 4.0 8.0 0.00 0.00 0.00 52 1015.3
20260509092904 67 90 4.0 9.0 0.00 0.00 0.00 52 1015.2
20260509092611 67 95 4.0 9.0 0.00 0.00 0.00 52 1015.1
20260509092504 67 97 3.0 9.0 0.00 0.00 0.00 52 1015.1
20260509092404 67 101 3.0 9.0 0.00 0.00 0.00 51 1015.1
20260509092204 67 99 3.0 9.0 0.00 0.00 0.00 51 1015.2
20260509092104 67 96 3.0 9.0 0.00 0.00 0.00 52 1015.3
20260509092005 67 92 3.0 9.0 0.00 0.00 0.00 52 1015.1
20260509091804 68 93 2.0 7.0 0.00 0.00 0.00 52 1015.2
20260509091703 68 101 2.0 7.0 0.00 0.00 0.00 53 1015.2
20260509091504 67 97 2.0 7.0 0.00 0.00 0.00 54 1015.2
20260509091404 67 93 3.0 7.0 0.00 0.00 0.00 54 1015.3
20260509091304 67 90 2.0 7.0 0.00 0.00 0.00 54 1015.4
20260509091204 67 90 3.0 7.0 0.00 0.00 0.00 55 1015.3
20260509091104 67 89 3.0 6.0 0.00 0.00 0.00 56 1015.3
20260509090904 67 85 3.0 6.0 0.00 0.00 0.00 56 1015.4
20260509090703 66 77 3.0 6.0 0.00 0.00 0.00 57 1015.4
20260509090610 66 75 3.0 7.0 0.00 0.00 0.00 57 1015.5
20260509090504 66 78 3.0 7.0 0.00 0.00 0.00 56 1015.4
20260509090404 66 78 3.0 7.0 0.00 0.00 0.00 57 1015.5
20260509090304 66 74 3.0 7.0 0.00 0.00 0.00 57 1015.5
20260509090204 66 75 3.0 7.0 0.00 0.00 0.00 56 1015.3
20260509090104 67 79 3.0 7.0 0.00 0.00 0.00 56 1015.4
20260509090005 67 85 3.0 7.0 0.00 0.00 0.00 56 1015.4
20260509085804 67 90 3.0 7.0 0.00 0.00 0.00 57 1015.3
20260509085611 67 92 3.0 7.0 0.00 0.00 0.00 56 1015.4
20260509085504 67 91 2.0 6.0 0.00 0.00 0.00 57 1015.4
20260509085403 67 93 2.0 6.0 0.00 0.00 0.00 59 1015.4
20260509085306 66 97 2.0 6.0 0.00 0.00 0.00 58 1015.5
20260509085104 66 95 2.0 6.0 0.00 0.00 0.00 57 1015.5
20260509084904 66 96 2.0 6.0 0.00 0.00 0.00 59 1015.4
20260509084805 66 94 2.0 6.0 0.00 0.00 0.00 60 1015.5
20260509084704 65 96 2.0 6.0 0.00 0.00 0.00 60 1015.5
20260509084612 65 98 1.0 4.0 0.00 0.00 0.00 60 1015.5
20260509084504 65 100 1.0 4.0 0.00 0.00 0.00 58 1015.5
20260509084404 66 105 1.0 4.0 0.00 0.00 0.00 58 1015.5
20260509084303 66 112 1.0 4.0 0.00 0.00 0.00 58 1015.5
20260509084204 66 105 1.0 3.0 0.00 0.00 0.00 58 1015.5
20260509084104 66 89 1.0 3.0 0.00 0.00 0.00 57 1015.5
20260509084004 66 297 1.0 2.0 0.00 0.00 0.00 57 1015.5
20260509083904 66 199 1.0 3.0 0.00 0.00 0.00 57 1015.6
20260509083804 66 167 1.0 3.0 0.00 0.00 0.00 57 1015.6
20260509083704 66 171 1.0 3.0 0.00 0.00 0.00 57 1015.6
20260509083505 66 156 1.0 3.0 0.00 0.00 0.00 57 1015.6
20260509083404 66 138 1.0 3.0 0.00 0.00 0.00 58 1015.6
20260509083304 66 126 1.0 3.0 0.00 0.00 0.00 58 1015.6
20260509083204 66 134 1.0 4.0 0.00 0.00 0.00 59 1015.5
20260509083104 65 132 2.0 5.0 0.00 0.00 0.00 58 1015.6
20260509083004 66 119 2.0 5.0 0.00 0.00 0.00 59 1015.5
20260509082804 66 99 2.0 5.0 0.00 0.00 0.00 59 1015.6
20260509082704 66 99 1.0 5.0 0.00 0.00 0.00 59 1015.6
20260509082611 66 100 1.0 5.0 0.00 0.00 0.00 60 1015.7
20260509082504 65 104 1.0 5.0 0.00 0.00 0.00 61 1015.7
20260509082405 65 104 1.0 5.0 0.00 0.00 0.00 60 1015.8
20260509082306 65 94 1.0 5.0 0.00 0.00 0.00 60 1015.7
20260509082204 65 82 1.0 5.0 0.00 0.00 0.00 60 1015.7
20260509082104 65 56 1.0 4.0 0.00 0.00 0.00 60 1015.7
20260509082004 65 27 1.0 3.0 0.00 0.00 0.00 61 1015.8
20260509081904 65 357 1.0 4.0 0.00 0.00 0.00 61 1015.9
20260509081804 64 350 1.0 4.0 0.00 0.00 0.00 61 1015.7
20260509081704 64 358 1.0 4.0 0.00 0.00 0.00 62 1015.8
20260509081610 64 3 1.0 4.0 0.00 0.00 0.00 61 1015.7
20260509081404 64 11 1.0 4.0 0.00 0.00 0.00 60 1015.9
20260509081104 64 35 1.0 4.0 0.00 0.00 0.00 61 1015.8
20260509081005 64 40 1.0 4.0 0.00 0.00 0.00 62 1015.9
20260509080903 64 55 1.0 3.0 0.00 0.00 0.00 62 1015.9
20260509080804 64 66 1.0 3.0 0.00 0.00 0.00 63 1015.9
20260509080704 63 69 1.0 4.0 0.00 0.00 0.00 63 1015.9
20260509080611 63 75 1.0 4.0 0.00 0.00 0.00 63 1015.9
20260509080404 63 66 2.0 4.0 0.00 0.00 0.00 63 1016.0
20260509080303 63 62 2.0 4.0 0.00 0.00 0.00 62 1016.0
20260509080204 63 64 2.0 4.0 0.00 0.00 0.00 62 1016.0
20260509080104 63 67 2.0 4.0 0.00 0.00 0.00 63 1016.0
20260509080005 63 69 2.0 4.0 0.00 0.00 0.00 63 1015.9
20260509075904 63 67 2.0 4.0 0.00 0.00 0.00 63 1016.0
20260509075804 63 62 2.0 4.0 0.00 0.00 0.00 63 1015.9
20260509075613 63 59 2.0 5.0 0.00 0.00 0.00 64 1016.1
20260509075504 62 56 2.0 5.0 0.00 0.00 0.00 65 1016.1
20260509075404 62 53 2.0 5.0 0.00 0.00 0.00 65 1016.1
20260509075306 62 47 3.0 5.0 0.00 0.00 0.00 65 1016.0
20260509075205 62 36 3.0 6.0 0.00 0.00 0.00 65 1016.2
20260509075103 62 28 3.0 6.0 0.00 0.00 0.00 65 1016.1
20260509074910 62 24 4.0 6.0 0.00 0.00 0.00 65 1016.2
20260509074804 61 20 4.0 6.0 0.00 0.00 0.00 65 1016.2
20260509074704 61 15 3.0 6.0 0.00 0.00 0.00 65 1016.1
20260509074604 61 10 3.0 6.0 0.00 0.00 0.00 66 1016.1
20260509074504 61 5 4.0 6.0 0.00 0.00 0.00 65 1016.1
20260509074403 61 4 4.0 6.0 0.00 0.00 0.00 65 1016.2
20260509074305 61 4 3.0 6.0 0.00 0.00 0.00 65 1016.1
20260509074205 61 2 3.0 6.0 0.00 0.00 0.00 64 1016.1
20260509074104 61 1 3.0 6.0 0.00 0.00 0.00 65 1016.1
20260509074005 61 357 2.0 6.0 0.00 0.00 0.00 66 1016.1
20260509073912 61 356 2.0 5.0 0.00 0.00 0.00 67 1016.1
20260509073704 61 354 2.0 5.0 0.00 0.00 0.00 67 1016.1
20260509073603 61 348 2.0 5.0 0.00 0.00 0.00 67 1016.1
20260509073504 61 348 2.0 5.0 0.00 0.00 0.00 68 1016.1
20260509073204 61 349 2.0 5.0 0.00 0.00 0.00 69 1016.1
20260509073103 61 350 2.0 5.0 0.00 0.00 0.00 70 1016.2
20260509072911 60 347 2.0 5.0 0.00 0.00 0.00 69 1016.2
20260509072704 60 347 2.0 5.0 0.00 0.00 0.00 70 1016.1
20260509072604 60 350 2.0 5.0 0.00 0.00 0.00 70 1016.3
20260509072404 60 348 2.0 5.0 0.00 0.00 0.00 69 1016.1
20260509072306 60 347 1.0 5.0 0.00 0.00 0.00 69 1016.1
20260509072203 60 351 1.0 5.0 0.00 0.00 0.00 69 1016.2
20260509072004 59 352 1.0 4.0 0.00 0.00 0.00 69 1016.2
20260509071910 59 351 1.0 4.0 0.00 0.00 0.00 69 1016.3
20260509071803 59 347 1.0 4.0 0.00 0.00 0.00 70 1016.2
20260509071704 59 352 1.0 4.0 0.00 0.00 0.00 70 1016.2
20260509071504 59 356 2.0 5.0 0.00 0.00 0.00 70 1016.3
20260509071404 59 354 2.0 5.0 0.00 0.00 0.00 70 1016.3
20260509071204 59 347 2.0 5.0 0.00 0.00 0.00 71 1016.3
20260509071104 59 347 2.0 5.0 0.00 0.00 0.00 71 1016.3
20260509071004 59 347 2.0 5.0 0.00 0.00 0.00 70 1016.4
20260509070911 59 346 2.0 5.0 0.00 0.00 0.00 71 1016.3
20260509070804 59 350 2.0 5.0 0.00 0.00 0.00 70 1016.2
20260509070704 59 353 2.0 5.0 0.00 0.00 0.00 70 1016.3
20260509070604 59 350 2.0 5.0 0.00 0.00 0.00 71 1016.3
20260509070504 59 350 2.0 5.0 0.00 0.00 0.00 71 1016.2
20260509070404 59 351 1.0 4.0 0.00 0.00 0.00 71 1016.1
20260509070204 59 352 1.0 4.0 0.00 0.00 0.00 71 1016.3
20260509070104 59 349 1.0 4.0 0.00 0.00 0.00 71 1016.3
20260509070004 59 340 1.0 4.0 0.00 0.00 0.00 71 1016.3
20260509065803 59 334 2.0 6.0 0.00 0.00 0.00 71 1016.3
20260509065704 59 331 2.0 6.0 0.00 0.00 0.00 72 1016.4
20260509065603 58 333 2.0 6.0 0.00 0.00 0.00 72 1016.4
20260509065504 58 335 2.0 6.0 0.00 0.00 0.00 73 1016.4
20260509065404 58 334 2.0 6.0 0.00 0.00 0.00 73 1016.4
20260509065306 58 338 3.0 6.0 0.00 0.00 0.00 73 1016.6
20260509065204 57 343 3.0 7.0 0.00 0.00 0.00 72 1016.4
20260509065103 58 345 3.0 7.0 0.00 0.00 0.00 72 1016.4
20260509064911 58 347 3.0 7.0 0.00 0.00 0.00 73 1016.5
20260509064804 57 351 3.0 7.0 0.00 0.00 0.00 74 1016.5
20260509064703 57 352 3.0 7.0 0.00 0.00 0.00 74 1016.5
20260509064603 57 350 3.0 7.0 0.00 0.00 0.00 74 1016.5
20260509064504 57 353 4.0 7.0 0.00 0.00 0.00 74 1016.5
20260509064405 57 354 4.0 7.0 0.00 0.00 0.00 74 1016.5
20260509064304 57 353 3.0 7.0 0.00 0.00 0.00 74 1016.5
20260509064205 57 351 3.0 7.0 0.00 0.00 0.00 74 1016.6
20260509064104 57 352 3.0 7.0 0.00 0.00 0.00 74 1016.5
20260509064004 57 352 3.0 7.0 0.00 0.00 0.00 75 1016.5
20260509063804 57 348 4.0 7.0 0.00 0.00 0.00 75 1016.6
20260509063704 56 346 4.0 7.0 0.00 0.00 0.00 74 1016.6
20260509063504 56 345 4.0 7.0 0.00 0.00 0.00 76 1016.7
20260509063404 56 345 4.0 7.0 0.00 0.00 0.00 75 1016.6
20260509063204 56 346 4.0 7.0 0.00 0.00 0.00 76 1016.6
20260509063104 56 346 4.0 7.0 0.00 0.00 0.00 75 1016.6
20260509062911 56 350 3.0 7.0 0.00 0.00 0.00 76 1016.6
20260509062804 56 350 3.0 7.0 0.00 0.00 0.00 76 1016.5
20260509062704 56 352 3.0 7.0 0.00 0.00 0.00 75 1016.7
20260509062603 56 353 3.0 7.0 0.00 0.00 0.00 76 1016.6
20260509062504 56 350 3.0 6.0 0.00 0.00 0.00 76 1016.6
20260509062404 56 350 3.0 6.0 0.00 0.00 0.00 76 1016.6
20260509062306 56 353 3.0 6.0 0.00 0.00 0.00 76 1016.6
20260509062204 56 357 3.0 6.0 0.00 0.00 0.00 76 1016.6
20260509062103 56 355 3.0 6.0 0.00 0.00 0.00 76 1016.6
20260509062004 56 354 3.0 6.0 0.00 0.00 0.00 76 1016.6
20260509061910 56 351 2.0 6.0 0.00 0.00 0.00 76 1016.6
20260509061803 56 351 2.0 6.0 0.00 0.00 0.00 76 1016.6
20260509061704 56 350 2.0 5.0 0.00 0.00 0.00 76 1016.5
20260509061604 56 349 2.0 5.0 0.00 0.00 0.00 77 1016.6
20260509061505 56 351 2.0 5.0 0.00 0.00 0.00 77 1016.6
20260509061303 56 350 2.0 4.0 0.00 0.00 0.00 77 1016.6
20260509061203 55 345 2.0 4.0 0.00 0.00 0.00 77 1016.6
20260509061103 55 345 2.0 4.0 0.00 0.00 0.00 77 1016.5
20260509061004 55 345 2.0 4.0 0.00 0.00 0.00 78 1016.5
20260509060910 55 346 2.0 4.0 0.00 0.00 0.00 78 1016.6
20260509060804 55 347 2.0 4.0 0.00 0.00 0.00 78 1016.6
20260509060704 55 347 2.0 4.0 0.00 0.00 0.00 78 1016.7
20260509060603 55 345 1.0 4.0 0.00 0.00 0.00 78 1016.7
20260509060504 55 344 1.0 4.0 0.00 0.00 0.00 78 1016.6
20260509060404 55 341 1.0 5.0 0.00 0.00 0.00 78 1016.6
20260509060304 55 344 2.0 5.0 0.00 0.00 0.00 78 1016.6
20260509060104 55 346 2.0 6.0 0.00 0.00 0.00 79 1016.6
20260509060005 54 345 2.0 6.0 0.00 0.00 0.00 78 1016.7
20260509055909 54 344 2.0 6.0 0.00 0.00 0.00 78 1016.7
20260509055803 54 343 3.0 6.0 0.00 0.00 0.00 79 1016.7
20260509055704 54 342 3.0 6.0 0.00 0.00 0.00 79 1016.7
20260509055603 54 340 3.0 6.0 0.00 0.00 0.00 79 1016.7
20260509055405 54 335 3.0 6.0 0.00 0.00 0.00 79 1016.7
20260509055306 54 331 3.0 6.0 0.00 0.00 0.00 80 1016.7
20260509055204 54 328 2.0 5.0 0.00 0.00 0.00 80 1016.6
20260509055104 54 326 2.0 4.0 0.00 0.00 0.00 80 1016.7
20260509054805 54 327 2.0 5.0 0.00 0.00 0.00 80 1016.7
20260509054703 54 329 2.0 5.0 0.00 0.00 0.00 80 1016.7
20260509054604 54 331 2.0 5.0 0.00 0.00 0.00 80 1016.6
20260509054504 54 333 2.0 5.0 0.00 0.00 0.00 79 1016.7
20260509054404 54 335 2.0 5.0 0.00 0.00 0.00 79 1016.6
20260509054304 54 336 2.0 5.0 0.00 0.00 0.00 79 1016.7
20260509054204 54 338 2.0 5.0 0.00 0.00 0.00 79 1016.6
20260509054104 54 338 2.0 5.0 0.00 0.00 0.00 80 1016.7
20260509054004 54 339 2.0 5.0 0.00 0.00 0.00 79 1016.7
20260509053910 54 337 2.0 4.0 0.00 0.00 0.00 80 1016.6
20260509053804 54 334 2.0 4.0 0.00 0.00 0.00 80 1016.7
20260509053705 54 332 2.0 4.0 0.00 0.00 0.00 80 1016.6
20260509053604 54 329 2.0 4.0 0.00 0.00 0.00 80 1016.5
20260509053504 54 327 2.0 4.0 0.00 0.00 0.00 80 1016.6
20260509053404 54 324 2.0 4.0 0.00 0.00 0.00 80 1016.5
20260509053304 54 323 1.0 4.0 0.00 0.00 0.00 80 1016.6
20260509053204 54 324 1.0 3.0 0.00 0.00 0.00 80 1016.6
20260509053104 54 321 1.0 3.0 0.00 0.00 0.00 80 1016.5
20260509053004 54 315 1.0 3.0 0.00 0.00 0.00 80 1016.6
20260509052910 54 312 1.0 3.0 0.00 0.00 0.00 80 1016.6
20260509052804 54 310 1.0 3.0 0.00 0.00 0.00 80 1016.6
20260509052604 54 307 1.0 3.0 0.00 0.00 0.00 80 1016.6
20260509052504 54 299 1.0 3.0 0.00 0.00 0.00 81 1016.6
20260509052403 53 294 1.0 3.0 0.00 0.00 0.00 81 1016.6
20260509052307 53 284 1.0 4.0 0.00 0.00 0.00 80 1016.7
20260509052203 53 275 1.0 4.0 0.00 0.00 0.00 80 1016.6
20260509052104 53 270 1.0 4.0 0.00 0.00 0.00 81 1016.6
20260509051804 53 270 1.0 4.0 0.00 0.00 0.00 81 1016.6
20260509051704 53 269 1.0 4.0 0.00 0.00 0.00 82 1016.7
20260509051604 53 268 1.0 4.0 0.00 0.00 0.00 82 1016.6
20260509051504 53 270 1.0 4.0 0.00 0.00 0.00 82 1016.6
20260509051404 53 272 1.0 4.0 0.00 0.00 0.00 82 1016.6
20260509051304 53 276 1.0 3.0 0.00 0.00 0.00 82 1016.6
20260509051204 53 272 1.0 4.0 0.00 0.00 0.00 82 1016.6
20260509051104 53 263 1.0 4.0 0.00 0.00 0.00 82 1016.6
20260509051004 53 254 1.0 5.0 0.00 0.00 0.00 82 1016.5
20260509050912 53 244 2.0 6.0 0.00 0.00 0.00 82 1016.5
20260509050704 53 234 2.0 6.0 0.00 0.00 0.00 83 1016.4
20260509050504 53 231 3.0 6.0 0.00 0.00 0.00 83 1016.5
20260509050404 52 230 3.0 6.0 0.00 0.00 0.00 84 1016.6
20260509050209 52 231 3.0 6.0 0.00 0.00 0.00 84 1016.5
20260509050104 52 231 3.0 6.0 0.00 0.00 0.00 84 1016.6
20260509050005 52 232 3.0 6.0 0.00 0.00 0.00 84 1016.6
20260509045903 52 234 3.0 6.0 0.00 0.00 0.00 84 1016.6
20260509045804 52 235 3.0 5.0 0.00 0.00 0.00 84 1016.5
20260509045703 52 237 2.0 5.0 0.00 0.00 0.00 84 1016.5
20260509045603 52 239 2.0 4.0 0.00 0.00 0.00 84 1016.5
20260509045504 52 239 2.0 4.0 0.00 0.00 0.00 84 1016.5
20260509045404 52 237 2.0 4.0 0.00 0.00 0.00 84 1016.5
20260509045306 52 237 2.0 4.0 0.00 0.00 0.00 85 1016.5
20260509045211 52 236 2.0 4.0 0.00 0.00 0.00 84 1016.5
20260509045104 52 235 2.0 4.0 0.00 0.00 0.00 84 1016.4
20260509045003 51 234 2.0 4.0 0.00 0.00 0.00 85 1016.4
20260509044904 51 233 2.0 4.0 0.00 0.00 0.00 85 1016.4
20260509044804 51 234 2.0 4.0 0.00 0.00 0.00 85 1016.4
20260509044704 51 234 2.0 4.0 0.00 0.00 0.00 85 1016.4
20260509044604 51 233 2.0 4.0 0.00 0.00 0.00 85 1016.4
20260509044504 51 233 2.0 4.0 0.00 0.00 0.00 84 1016.3
20260509044404 51 234 2.0 4.0 0.00 0.00 0.00 84 1016.3
20260509044304 51 234 2.0 4.0 0.00 0.00 0.00 84 1016.3
20260509044104 51 234 1.0 4.0 0.00 0.00 0.00 84 1016.3
20260509043904 51 229 1.0 4.0 0.00 0.00 0.00 84 1016.3
20260509043803 52 224 1.0 4.0 0.00 0.00 0.00 84 1016.2
20260509043704 52 220 2.0 4.0 0.00 0.00 0.00 84 1016.2
20260509043510 52 217 2.0 4.0 0.00 0.00 0.00 84 1016.2
20260509043403 52 217 2.0 4.0 0.00 0.00 0.00 84 1016.1
20260509043204 51 220 3.0 4.0 0.00 0.00 0.00 85 1016.1
20260509043104 51 220 3.0 4.0 0.00 0.00 0.00 85 1016.1
20260509043004 51 222 3.0 4.0 0.00 0.00 0.00 85 1016.0
20260509042904 51 224 3.0 5.0 0.00 0.00 0.00 85 1016.0
20260509042804 51 228 2.0 5.0 0.00 0.00 0.00 85 1016.1
20260509042704 51 231 2.0 5.0 0.00 0.00 0.00 85 1016.0
20260509042604 51 234 2.0 5.0 0.00 0.00 0.00 84 1016.1
20260509042204 51 243 1.0 5.0 0.00 0.00 0.00 84 1016.0
20260509042104 51 241 1.0 5.0 0.00 0.00 0.00 84 1016.0
20260509042005 51 237 1.0 5.0 0.00 0.00 0.00 84 1016.0
20260509041805 52 235 1.0 5.0 0.00 0.00 0.00 84 1015.9
20260509041704 52 236 1.0 5.0 0.00 0.00 0.00 84 1015.9
20260509041516 52 241 1.0 5.0 0.00 0.00 0.00 84 1015.8
20260509041404 51 245 1.0 5.0 0.00 0.00 0.00 84 1015.8
20260509041303 51 247 1.0 5.0 0.00 0.00 0.00 84 1015.8
20260509041204 51 249 2.0 5.0 0.00 0.00 0.00 84 1015.8
20260509041104 51 252 2.0 5.0 0.00 0.00 0.00 84 1015.8
20260509041004 51 258 1.0 3.0 0.00 0.00 0.00 84 1015.7
20260509040810 52 241 2.0 5.0 0.00 0.00 0.00 84 1015.8
20260509040704 52 232 2.0 5.0 0.00 0.00 0.00 84 1015.9
20260509040505 52 222 2.0 5.0 0.00 0.00 0.00 84 1015.7
20260509040404 52 220 2.0 5.0 0.00 0.00 0.00 84 1015.7
20260509040303 52 218 3.0 5.0 0.00 0.00 0.00 85 1015.7
20260509040204 51 216 3.0 5.0 0.00 0.00 0.00 85 1015.7
20260509040104 51 217 3.0 5.0 0.00 0.00 0.00 85 1015.6
20260509040005 51 217 3.0 5.0 0.00 0.00 0.00 85 1015.6
20260509035904 51 218 3.0 5.0 0.00 0.00 0.00 84 1015.6
20260509035813 51 219 3.0 5.0 0.00 0.00 0.00 84 1015.8
20260509035605 51 222 3.0 4.0 0.00 0.00 0.00 84 1015.8
20260509035504 51 221 3.0 4.0 0.00 0.00 0.00 84 1015.7
20260509035404 51 221 3.0 4.0 0.00 0.00 0.00 84 1015.7
20260509035306 51 220 3.0 4.0 0.00 0.00 0.00 84 1015.7
20260509035203 51 220 3.0 4.0 0.00 0.00 0.00 84 1015.8
20260509035109 51 220 3.0 4.0 0.00 0.00 0.00 84 1015.6
20260509035004 51 219 3.0 5.0 0.00 0.00 0.00 84 1015.6
20260509034903 51 220 3.0 5.0 0.00 0.00 0.00 84 1015.7
20260509034803 51 221 3.0 5.0 0.00 0.00 0.00 85 1015.7
20260509034704 51 222 3.0 5.0 0.00 0.00 0.00 85 1015.7
20260509034604 51 224 3.0 5.0 0.00 0.00 0.00 85 1015.7
20260509034504 51 225 3.0 5.0 0.00 0.00 0.00 85 1015.7
20260509034404 51 226 3.0 5.0 0.00 0.00 0.00 84 1015.7
20260509034304 51 228 3.0 5.0 0.00 0.00 0.00 84 1015.7
20260509034204 51 228 3.0 5.0 0.00 0.00 0.00 84 1015.6
20260509034111 51 227 3.0 5.0 0.00 0.00 0.00 84 1015.7
20260509034004 51 228 3.0 5.0 0.00 0.00 0.00 84 1015.7
20260509033904 51 228 4.0 5.0 0.00 0.00 0.00 84 1015.8
20260509033804 51 228 3.0 5.0 0.00 0.00 0.00 84 1015.7
20260509033704 51 230 3.0 5.0 0.00 0.00 0.00 84 1015.7
20260509033603 51 231 3.0 5.0 0.00 0.00 0.00 83 1015.8
20260509033504 51 233 3.0 5.0 0.00 0.00 0.00 83 1015.8
20260509033409 52 236 3.0 5.0 0.00 0.00 0.00 83 1015.8
20260509033304 52 238 3.0 5.0 0.00 0.00 0.00 82 1015.9
20260509033204 52 241 3.0 5.0 0.00 0.00 0.00 83 1015.8
20260509033004 52 250 3.0 5.0 0.00 0.00 0.00 82 1015.9
20260509032804 52 258 2.0 4.0 0.00 0.00 0.00 83 1015.8
20260509032603 52 258 1.0 4.0 0.00 0.00 0.00 83 1015.8
20260509032306 52 239 1.0 3.0 0.00 0.00 0.00 83 1015.7
20260509032204 52 230 1.0 3.0 0.00 0.00 0.00 83 1015.7
20260509032104 52 217 1.0 3.0 0.00 0.00 0.00 83 1015.8
20260509032005 52 204 1.0 2.0 0.00 0.00 0.00 83 1015.7
20260509031904 52 204 1.0 3.0 0.00 0.00 0.00 83 1015.8
20260509031804 52 211 1.0 3.0 0.00 0.00 0.00 83 1015.7
20260509031709 52 213 1.0 3.0 0.00 0.00 0.00 83 1015.8
20260509031603 52 213 1.0 3.0 0.00 0.00 0.00 83 1015.7
20260509031504 52 210 1.0 3.0 0.00 0.00 0.00 83 1015.7
20260509031403 52 215 1.0 3.0 0.00 0.00 0.00 82 1015.7
20260509031304 52 240 1.0 3.0 0.00 0.00 0.00 82 1015.7
20260509031203 52 258 1.0 3.0 0.00 0.00 0.00 82 1015.8
20260509031103 52 273 1.0 3.0 0.00 0.00 0.00 82 1015.7
20260509031004 53 288 1.0 3.0 0.00 0.00 0.00 82 1015.7
20260509030903 53 300 1.0 3.0 0.00 0.00 0.00 82 1015.7
20260509030804 53 316 1.0 3.0 0.00 0.00 0.00 83 1015.7
20260509030711 53 312 1.0 3.0 0.00 0.00 0.00 83 1015.7
20260509030604 53 308 1.0 3.0 0.00 0.00 0.00 82 1015.8
20260509030404 53 299 1.0 3.0 0.00 0.00 0.00 82 1015.8
20260509030304 53 290 1.0 3.0 0.00 0.00 0.00 83 1015.8
20260509030204 53 274 1.0 3.0 0.00 0.00 0.00 83 1015.9
20260509030104 53 262 1.0 3.0 0.00 0.00 0.00 83 1015.9
20260509030009 52 247 1.0 3.0 0.00 0.00 0.00 83 1015.9
20260509025904 52 239 1.0 4.0 0.00 0.00 0.00 83 1015.9
20260509025804 52 239 1.0 4.0 0.00 0.00 0.00 83 1015.9
20260509025704 52 239 1.0 4.0 0.00 0.00 0.00 83 1015.9
20260509025603 52 237 2.0 4.0 0.00 0.00 0.00 83 1015.9
20260509025504 52 233 2.0 4.0 0.00 0.00 0.00 83 1015.9
20260509025404 52 234 2.0 4.0 0.00 0.00 0.00 83 1016.0
20260509025307 52 232 2.0 5.0 0.00 0.00 0.00 83 1016.0
20260509025204 52 231 2.0 5.0 0.00 0.00 0.00 83 1016.0
20260509025104 52 231 3.0 5.0 0.00 0.00 0.00 82 1015.9
20260509024804 52 231 3.0 5.0 0.00 0.00 0.00 82 1016.0
20260509024704 52 233 3.0 5.0 0.00 0.00 0.00 82 1015.9
20260509024604 52 235 3.0 5.0 0.00 0.00 0.00 81 1016.0
20260509024504 52 237 3.0 5.0 0.00 0.00 0.00 81 1015.8
20260509024403 53 238 3.0 5.0 0.00 0.00 0.00 80 1015.9
20260509024312 53 240 3.0 5.0 0.00 0.00 0.00 80 1015.9
20260509024204 53 242 2.0 5.0 0.00 0.00 0.00 80 1015.9
20260509024103 53 241 2.0 5.0 0.00 0.00 0.00 79 1015.7
20260509024004 53 241 2.0 5.0 0.00 0.00 0.00 79 1015.8
20260509023904 54 238 2.0 4.0 0.00 0.00 0.00 79 1015.6
20260509023804 54 234 2.0 4.0 0.00 0.00 0.00 79 1015.7
20260509023704 54 224 1.0 3.0 0.00 0.00 0.00 80 1015.7
20260509023608 54 214 1.0 3.0 0.00 0.00 0.00 80 1015.7
20260509023504 54 207 1.0 3.0 0.00 0.00 0.00 80 1015.7
20260509023404 54 204 1.0 4.0 0.00 0.00 0.00 80 1015.7
20260509023304 54 202 2.0 4.0 0.00 0.00 0.00 80 1015.7
20260509023203 54 201 2.0 4.0 0.00 0.00 0.00 80 1015.6
20260509023104 54 205 2.0 4.0 0.00 0.00 0.00 80 1015.6
20260509023004 54 207 2.0 4.0 0.00 0.00 0.00 81 1015.6
20260509022805 54 218 2.0 4.0 0.00 0.00 0.00 81 1015.5
20260509022705 54 223 2.0 4.0 0.00 0.00 0.00 81 1015.7
20260509022611 53 226 2.0 4.0 0.00 0.00 0.00 81 1015.5
20260509022503 53 224 2.0 4.0 0.00 0.00 0.00 82 1015.5
20260509022405 53 220 2.0 4.0 0.00 0.00 0.00 82 1015.5
20260509022307 53 217 2.0 4.0 0.00 0.00 0.00 82 1015.6
20260509022104 53 213 2.0 4.0 0.00 0.00 0.00 82 1015.6
20260509021909 53 217 2.0 4.0 0.00 0.00 0.00 82 1015.5
20260509021803 53 214 1.0 4.0 0.00 0.00 0.00 82 1015.5
20260509021603 53 213 1.0 3.0 0.00 0.00 0.00 82 1015.5
20260509021504 53 230 1.0 3.0 0.00 0.00 0.00 82 1015.5
20260509021404 53 250 1.0 3.0 0.00 0.00 0.00 82 1015.5
20260509021304 53 264 1.0 3.0 0.00 0.00 0.00 81 1015.5
20260509021203 53 270 1.0 3.0 0.00 0.00 0.00 81 1015.5
20260509020904 53 283 1.0 4.0 0.00 0.00 0.00 81 1015.6
20260509020803 53 286 1.0 4.0 0.00 0.00 0.00 81 1015.5
20260509020703 53 287 1.0 4.0 0.00 0.00 0.00 81 1015.6
20260509020611 53 289 1.0 4.0 0.00 0.00 0.00 81 1015.6
20260509020505 53 295 1.0 4.0 0.00 0.00 0.00 81 1015.6
20260509020404 53 301 1.0 4.0 0.00 0.00 0.00 81 1015.7
20260509020304 53 303 1.0 4.0 0.00 0.00 0.00 81 1015.6
20260509020104 53 307 1.0 4.0 0.00 0.00 0.00 81 1015.6
20260509020004 53 315 1.0 4.0 0.00 0.00 0.00 81 1015.8
20260509015904 53 322 1.0 4.0 0.00 0.00 0.00 81 1015.8
20260509015804 53 325 1.0 4.0 0.00 0.00 0.00 81 1015.7
20260509015704 53 324 1.0 4.0 0.00 0.00 0.00 82 1015.7
20260509015610 53 324 2.0 4.0 0.00 0.00 0.00 82 1015.8
20260509015504 53 326 2.0 5.0 0.00 0.00 0.00 82 1015.7
20260509015403 53 325 2.0 5.0 0.00 0.00 0.00 82 1015.8
20260509015306 53 325 2.0 5.0 0.00 0.00 0.00 81 1015.8
20260509015204 53 325 2.0 5.0 0.00 0.00 0.00 81 1015.8
20260509015104 53 323 2.0 5.0 0.00 0.00 0.00 81 1015.8
20260509014804 53 285 2.0 5.0 0.00 0.00 0.00 82 1015.8
20260509014404 53 249 1.0 4.0 0.00 0.00 0.00 81 1015.8
20260509014304 53 249 1.0 4.0 0.00 0.00 0.00 81 1015.9
20260509014203 53 248 1.0 4.0 0.00 0.00 0.00 81 1015.8
20260509014104 53 247 1.0 5.0 0.00 0.00 0.00 81 1015.8
20260509014004 53 244 2.0 5.0 0.00 0.00 0.00 81 1015.9
20260509013910 53 244 2.0 5.0 0.00 0.00 0.00 82 1015.8
20260509013804 53 243 2.0 5.0 0.00 0.00 0.00 82 1015.8
20260509013704 53 241 2.0 5.0 0.00 0.00 0.00 82 1015.8
20260509013604 53 240 3.0 7.0 0.00 0.00 0.00 82 1015.8
20260509013504 53 238 3.0 7.0 0.00 0.00 0.00 82 1015.8
20260509013404 53 236 4.0 7.0 0.00 0.00 0.00 82 1015.8
20260509013304 53 234 4.0 7.0 0.00 0.00 0.00 83 1015.8
20260509013104 53 232 5.0 7.0 0.00 0.00 0.00 82 1015.9
20260509013004 53 232 5.0 7.0 0.00 0.00 0.00 82 1015.8
20260509012903 53 231 5.0 7.0 0.00 0.00 0.00 82 1015.9
20260509012803 53 230 5.0 7.0 0.00 0.00 0.00 82 1015.9
20260509012604 53 227 6.0 8.0 0.00 0.00 0.00 83 1016.0
20260509012504 53 227 6.0 8.0 0.00 0.00 0.00 83 1015.8
20260509012404 53 226 6.0 8.0 0.00 0.00 0.00 83 1016.0
20260509012307 53 225 6.0 8.0 0.00 0.00 0.00 83 1016.0
20260509012210 52 225 6.0 8.0 0.00 0.00 0.00 82 1015.9
20260509012104 53 224 6.0 8.0 0.00 0.00 0.00 82 1015.9
20260509012004 53 223 6.0 8.0 0.00 0.00 0.00 82 1016.0
20260509011803 53 222 6.0 8.0 0.00 0.00 0.00 82 1016.0
20260509011704 53 222 6.0 8.0 0.00 0.00 0.00 82 1015.9
20260509011603 53 221 6.0 8.0 0.00 0.00 0.00 82 1016.0
20260509011404 53 221 5.0 8.0 0.00 0.00 0.00 82 1015.9
20260509011303 53 221 5.0 8.0 0.00 0.00 0.00 82 1016.0
20260509011213 53 220 5.0 7.0 0.00 0.00 0.00 82 1016.0
20260509011104 53 220 5.0 7.0 0.00 0.00 0.00 82 1015.9
20260509011004 53 220 5.0 7.0 0.00 0.00 0.00 82 1015.9
20260509010904 53 220 5.0 7.0 0.00 0.00 0.00 81 1016.0
20260509010804 53 219 5.0 7.0 0.00 0.00 0.00 81 1016.0
20260509010510 53 217 5.0 7.0 0.00 0.00 0.00 81 1016.1
20260509010404 53 217 5.0 7.0 0.00 0.00 0.00 81 1016.0
20260509010303 53 217 4.0 6.0 0.00 0.00 0.00 81 1015.9
20260509010203 53 217 4.0 6.0 0.00 0.00 0.00 81 1016.0
20260509010103 53 218 4.0 6.0 0.00 0.00 0.00 81 1015.9
20260509010004 53 219 4.0 6.0 0.00 0.00 0.00 81 1015.9
20260509005809 53 222 4.0 6.0 0.00 0.00 0.00 81 1016.0
20260509005704 53 223 4.0 6.0 0.00 0.00 0.00 80 1015.9
20260509005604 53 224 4.0 6.0 0.00 0.00 0.00 80 1015.9
20260509005504 53 226 3.0 6.0 0.00 0.00 0.00 80 1015.9
20260509005404 53 229 3.0 6.0 0.00 0.00 0.00 80 1015.9
20260509005306 53 232 3.0 6.0 0.00 0.00 0.00 80 1015.9
20260509005203 54 234 3.0 6.0 0.00 0.00 0.00 80 1015.8
20260509004904 54 240 2.0 4.0 0.00 0.00 0.00 80 1015.8
20260509004504 54 244 2.0 4.0 0.00 0.00 0.00 80 1015.8
20260509004403 54 241 2.0 4.0 0.00 0.00 0.00 80 1015.9
20260509004304 54 239 2.0 4.0 0.00 0.00 0.00 80 1015.8
20260509004204 54 240 2.0 5.0 0.00 0.00 0.00 80 1015.8
20260509004109 54 241 2.0 5.0 0.00 0.00 0.00 80 1015.8
20260509004004 54 242 2.0 5.0 0.00 0.00 0.00 80 1015.8
20260509003804 54 247 2.0 5.0 0.00 0.00 0.00 80 1015.8
20260509003704 54 249 2.0 5.0 0.00 0.00 0.00 80 1015.8
20260509003604 54 249 2.0 5.0 0.00 0.00 0.00 80 1015.8
20260509003504 54 250 2.0 5.0 0.00 0.00 0.00 80 1015.8
20260509003408 54 255 2.0 5.0 0.00 0.00 0.00 80 1015.9
20260509003204 54 265 1.0 5.0 0.00 0.00 0.00 80 1015.7
20260509003104 54 272 1.0 3.0 0.00 0.00 0.00 80 1015.8
20260509003004 54 277 1.0 3.0 0.00 0.00 0.00 80 1015.8
20260509002904 54 279 1.0 2.0 0.00 0.00 0.00 80 1015.7
20260509002804 54 281 1.0 2.0 0.00 0.00 0.00 80 1015.7
20260509002704 54 285 1.0 2.0 0.00 0.00 0.00 80 1015.8
20260509002504 54 287 0.0 2.0 0.00 0.00 0.00 80 1015.9
20260509002412 54 287 0.0 2.0 0.00 0.00 0.00 80 1015.8
20260509002306 54 284 1.0 2.0 0.00 0.00 0.00 80 1015.8
20260509002204 54 280 1.0 3.0 0.00 0.00 0.00 80 1015.9
20260509002104 54 281 1.0 3.0 0.00 0.00 0.00 80 1015.8
20260509002004 54 280 1.0 3.0 0.00 0.00 0.00 80 1015.8
20260509001904 54 279 1.0 3.0 0.00 0.00 0.00 80 1015.8
20260509001804 54 276 1.0 3.0 0.00 0.00 0.00 80 1015.8
20260509001711 54 270 1.0 4.0 0.00 0.00 0.00 80 1015.8
20260509001604 54 266 1.0 4.0 0.00 0.00 0.00 81 1015.8
20260509001504 54 261 2.0 7.0 0.00 0.00 0.00 81 1015.8
20260509001404 54 252 2.0 7.0 0.00 0.00 0.00 81 1015.8
20260509001304 54 247 3.0 8.0 0.00 0.00 0.00 81 1015.8
20260509001204 54 243 3.0 8.0 0.00 0.00 0.00 81 1015.8
20260509001103 54 239 4.0 8.0 0.00 0.00 0.00 81 1015.7
20260509001009 54 235 4.0 8.0 0.00 0.00 0.00 81 1015.8
20260509000903 54 233 5.0 8.0 0.00 0.00 0.00 81 1015.6
20260509000804 54 231 5.0 8.0 0.00 0.00 0.00 81 1015.7
20260509000704 54 230 6.0 8.0 0.00 0.00 0.00 81 1015.7
20260509000504 53 228 6.0 8.0 0.00 0.00 0.00 81 1015.8
20260509000403 53 228 6.0 8.0 0.00 0.00 0.00 81 1015.7
20260509000204 53 227 6.0 9.0 0.00 0.00 0.00 81 1015.8
20260509000104 53 226 7.0 9.0 0.00 0.00 0.00 81 1015.8
20260509000010 53 226 7.0 9.0 0.00 0.00 0.00 81 1015.7
20260508235904 53 225 7.0 9.0 0.00 0.00 0.00 81 1015.8
20260508235804 53 224 6.0 9.0 0.00 0.00 0.00 81 1015.7
20260508235704 53 223 6.0 9.0 0.00 0.00 0.00 81 1015.8
20260508235604 53 222 6.0 9.0 0.00 0.00 0.00 81 1015.6
20260508235405 53 219 7.0 9.0 0.00 0.00 0.00 81 1015.7
20260508235309 53 218 6.0 9.0 0.00 0.00 0.00 81 1015.7
20260508235203 54 216 6.0 9.0 0.00 0.00 0.00 81 1015.7
20260508235104 54 215 6.0 9.0 0.00 0.00 0.00 81 1015.6
20260508235004 54 213 6.0 9.0 0.00 0.00 0.00 81 1015.6
20260508234904 54 213 6.0 9.0 0.00 0.00 0.00 80 1015.7
20260508234804 54 212 6.0 9.0 0.00 0.00 0.00 80 1015.7
20260508234703 54 212 6.0 9.0 0.00 0.00 0.00 80 1015.7
20260508234604 54 213 6.0 9.0 0.00 0.00 0.00 80 1015.7
20260508234312 54 213 6.0 9.0 0.00 0.00 0.00 80 1015.6
20260508234204 54 213 6.0 9.0 0.00 0.00 0.00 80 1015.6
20260508234104 54 214 5.0 9.0 0.00 0.00 0.00 80 1015.7
20260508234004 54 213 5.0 9.0 0.00 0.00 0.00 79 1015.6
20260508233904 54 213 4.0 8.0 0.00 0.00 0.00 79 1015.7
20260508233804 54 213 4.0 8.0 0.00 0.00 0.00 79 1015.7
20260508233704 54 213 4.0 8.0 0.00 0.00 0.00 79 1015.7
20260508233611 54 213 4.0 8.0 0.00 0.00 0.00 79 1015.6
20260508233504 54 215 3.0 7.0 0.00 0.00 0.00 79 1015.5
20260508233304 55 216 2.0 5.0 0.00 0.00 0.00 79 1015.6
20260508233104 55 222 2.0 4.0 0.00 0.00 0.00 79 1015.5
20260508233005 55 223 2.0 4.0 0.00 0.00 0.00 79 1015.5
20260508232910 55 223 2.0 4.0 0.00 0.00 0.00 79 1015.5
20260508232803 55 224 2.0 4.0 0.00 0.00 0.00 78 1015.5
20260508232704 55 224 2.0 4.0 0.00 0.00 0.00 78 1015.5
20260508232504 55 228 2.0 4.0 0.00 0.00 0.00 79 1015.4
20260508232404 55 231 2.0 4.0 0.00 0.00 0.00 79 1015.5
20260508232307 55 234 2.0 4.0 0.00 0.00 0.00 79 1015.5
20260508231904 55 254 2.0 4.0 0.00 0.00 0.00 79 1015.6
20260508231803 55 266 2.0 4.0 0.00 0.00 0.00 79 1015.5
20260508231604 55 291 1.0 4.0 0.00 0.00 0.00 79 1015.6
20260508231508 55 299 1.0 4.0 0.00 0.00 0.00 79 1015.6
20260508231303 55 297 1.0 3.0 0.00 0.00 0.00 79 1015.6
20260508231204 55 287 1.0 5.0 0.00 0.00 0.00 79 1015.5
20260508231104 55 276 2.0 5.0 0.00 0.00 0.00 79 1015.5
20260508231004 55 264 2.0 6.0 0.00 0.00 0.00 79 1015.6
20260508230904 55 255 2.0 6.0 0.00 0.00 0.00 79 1015.6
20260508230808 55 249 3.0 6.0 0.00 0.00 0.00 79 1015.5
20260508230704 55 242 3.0 6.0 0.00 0.00 0.00 79 1015.5
20260508230603 55 237 3.0 6.0 0.00 0.00 0.00 79 1015.6
20260508230504 55 233 3.0 6.0 0.00 0.00 0.00 79 1015.6
20260508230403 55 230 4.0 6.0 0.00 0.00 0.00 79 1015.5
20260508230304 55 229 4.0 7.0 0.00 0.00 0.00 79 1015.5
20260508230107 55 225 5.0 7.0 0.00 0.00 0.00 79 1015.7
20260508230004 55 224 5.0 7.0 0.00 0.00 0.00 79 1015.7
20260508225903 55 223 5.0 7.0 0.00 0.00 0.00 79 1015.6
20260508225803 55 224 5.0 7.0 0.00 0.00 0.00 79 1015.6
20260508225704 55 224 5.0 8.0 0.00 0.00 0.00 79 1015.6
20260508225604 55 224 5.0 8.0 0.00 0.00 0.00 79 1015.7
20260508225504 55 224 5.0 8.0 0.00 0.00 0.00 79 1015.6
20260508225406 55 225 5.0 8.0 0.00 0.00 0.00 79 1015.6
20260508225204 55 226 5.0 8.0 0.00 0.00 0.00 79 1015.7
20260508225111 55 227 5.0 8.0 0.00 0.00 0.00 79 1015.8
20260508224903 55 227 5.0 8.0 0.00 0.00 0.00 79 1015.7
20260508224804 55 226 5.0 8.0 0.00 0.00 0.00 79 1015.7
20260508224703 55 224 5.0 8.0 0.00 0.00 0.00 79 1015.7
20260508224603 55 223 5.0 8.0 0.00 0.00 0.00 79 1015.6
20260508224204 55 219 5.0 8.0 0.00 0.00 0.00 79 1015.6
20260508224104 55 219 5.0 8.0 0.00 0.00 0.00 79 1015.6
20260508224004 55 219 5.0 8.0 0.00 0.00 0.00 79 1015.6
20260508223905 55 219 5.0 8.0 0.00 0.00 0.00 79 1015.7
20260508223804 55 219 5.0 8.0 0.00 0.00 0.00 79 1015.7
20260508223704 55 221 5.0 8.0 0.00 0.00 0.00 79 1015.7
20260508223604 55 223 5.0 8.0 0.00 0.00 0.00 79 1015.7
20260508223504 55 225 5.0 8.0 0.00 0.00 0.00 78 1015.7
20260508223414 55 227 5.0 7.0 0.00 0.00 0.00 78 1015.7
20260508223304 55 229 4.0 7.0 0.00 0.00 0.00 78 1015.7
20260508223203 55 231 4.0 7.0 0.00 0.00 0.00 78 1015.6
20260508223104 55 233 4.0 7.0 0.00 0.00 0.00 79 1015.7
20260508222903 55 236 4.0 7.0 0.00 0.00 0.00 79 1015.7
20260508222803 55 237 4.0 7.0 0.00 0.00 0.00 78 1015.6
20260508222505 55 237 5.0 7.0 0.00 0.00 0.00 79 1015.6
20260508222403 55 235 5.0 7.0 0.00 0.00 0.00 79 1015.6
20260508222306 55 233 5.0 7.0 0.00 0.00 0.00 78 1015.6
20260508222104 55 231 5.0 7.0 0.00 0.00 0.00 78 1015.6
20260508222009 55 230 5.0 7.0 0.00 0.00 0.00 78 1015.6
20260508221904 55 229 5.0 7.0 0.00 0.00 0.00 78 1015.6
20260508221604 55 227 5.0 7.0 0.00 0.00 0.00 78 1015.5
20260508221504 55 226 5.0 7.0 0.00 0.00 0.00 78 1015.5
20260508221304 55 226 5.0 7.0 0.00 0.00 0.00 78 1015.5
20260508221204 55 226 5.0 7.0 0.00 0.00 0.00 78 1015.4
20260508221104 56 226 5.0 7.0 0.00 0.00 0.00 77 1015.4
20260508221013 56 226 5.0 7.0 0.00 0.00 0.00 77 1015.4
20260508220904 56 227 5.0 7.0 0.00 0.00 0.00 77 1015.4
20260508220704 56 227 5.0 7.0 0.00 0.00 0.00 78 1015.4
20260508220604 56 228 5.0 7.0 0.00 0.00 0.00 77 1015.5
20260508220504 56 230 5.0 7.0 0.00 0.00 0.00 77 1015.5
20260508220204 56 236 4.0 7.0 0.00 0.00 0.00 77 1015.4
20260508220105 56 235 4.0 7.0 0.00 0.00 0.00 77 1015.4
20260508215904 56 234 3.0 7.0 0.00 0.00 0.00 77 1015.4
20260508215804 56 236 3.0 7.0 0.00 0.00 0.00 77 1015.4
20260508215705 56 238 3.0 7.0 0.00 0.00 0.00 78 1015.4
20260508215609 56 238 3.0 7.0 0.00 0.00 0.00 78 1015.4
20260508215504 56 238 3.0 7.0 0.00 0.00 0.00 78 1015.4
20260508215404 56 236 4.0 7.0 0.00 0.00 0.00 78 1015.5
20260508215203 56 233 4.0 8.0 0.00 0.00 0.00 78 1015.5
20260508215103 56 235 4.0 8.0 0.00 0.00 0.00 78 1015.6
20260508215004 56 235 4.0 8.0 0.00 0.00 0.00 78 1015.6
20260508214803 56 236 5.0 8.0 0.00 0.00 0.00 78 1015.6
20260508214704 56 235 5.0 8.0 0.00 0.00 0.00 78 1015.6
20260508214604 56 236 5.0 8.0 0.00 0.00 0.00 78 1015.5
20260508214503 56 236 5.0 8.0 0.00 0.00 0.00 78 1015.6
20260508214404 56 237 5.0 8.0 0.00 0.00 0.00 77 1015.6
20260508214303 56 237 4.0 8.0 0.00 0.00 0.00 78 1015.5
20260508214207 56 238 5.0 7.0 0.00 0.00 0.00 77 1015.5
20260508214005 56 237 5.0 8.0 0.00 0.00 0.00 77 1015.5
20260508213904 56 236 5.0 8.0 0.00 0.00 0.00 77 1015.4
20260508213803 56 234 5.0 8.0 0.00 0.00 0.00 77 1015.5
20260508213703 56 231 5.0 8.0 0.00 0.00 0.00 77 1015.5
20260508213604 56 228 5.0 8.0 0.00 0.00 0.00 77 1015.4
20260508213508 56 226 5.0 8.0 0.00 0.00 0.00 77 1015.3
20260508213404 56 223 5.0 8.0 0.00 0.00 0.00 77 1015.4
20260508213304 56 221 5.0 8.0 0.00 0.00 0.00 77 1015.4
20260508213203 56 219 5.0 8.0 0.00 0.00 0.00 77 1015.3
20260508213104 56 217 5.0 8.0 0.00 0.00 0.00 76 1015.3
20260508212904 56 217 5.0 8.0 0.00 0.00 0.00 77 1015.3
20260508212808 56 218 5.0 8.0 0.00 0.00 0.00 77 1015.4
20260508212703 56 220 5.0 8.0 0.00 0.00 0.00 77 1015.3
20260508212604 56 222 5.0 8.0 0.00 0.00 0.00 76 1015.3
20260508212504 56 224 5.0 8.0 0.00 0.00 0.00 76 1015.3
20260508212404 56 225 5.0 8.0 0.00 0.00 0.00 76 1015.3
20260508212306 56 226 5.0 7.0 0.00 0.00 0.00 76 1015.3
20260508212204 56 227 5.0 8.0 0.00 0.00 0.00 76 1015.3
20260508212107 56 227 5.0 8.0 0.00 0.00 0.00 76 1015.2
20260508212004 57 227 5.0 8.0 0.00 0.00 0.00 76 1015.2
20260508211904 56 226 5.0 8.0 0.00 0.00 0.00 76 1015.1
20260508211804 57 225 5.0 8.0 0.00 0.00 0.00 76 1015.1
20260508211504 57 220 5.0 8.0 0.00 0.00 0.00 76 1015.2
20260508211407 57 220 5.0 8.0 0.00 0.00 0.00 76 1015.2
20260508211303 57 220 4.0 8.0 0.00 0.00 0.00 76 1015.2
20260508211203 57 221 4.0 7.0 0.00 0.00 0.00 76 1015.1
20260508211104 57 222 4.0 7.0 0.00 0.00 0.00 76 1015.3
20260508211004 57 224 4.0 7.0 0.00 0.00 0.00 76 1015.2
20260508210904 57 225 4.0 7.0 0.00 0.00 0.00 76 1015.2
20260508210708 57 225 4.0 8.0 0.00 0.00 0.00 76 1015.2
20260508210604 57 224 4.0 8.0 0.00 0.00 0.00 76 1015.2
20260508210504 57 225 4.0 8.0 0.00 0.00 0.00 76 1015.2
20260508210405 57 226 5.0 8.0 0.00 0.00 0.00 76 1015.2
20260508210305 57 225 5.0 8.0 0.00 0.00 0.00 76 1015.2
20260508210203 57 224 5.0 8.0 0.00 0.00 0.00 76 1015.1
20260508210104 57 223 5.0 8.0 0.00 0.00 0.00 76 1015.2
20260508210009 57 223 5.0 8.0 0.00 0.00 0.00 76 1015.2
20260508205904 57 223 5.0 8.0 0.00 0.00 0.00 76 1015.1
20260508205804 57 221 5.0 8.0 0.00 0.00 0.00 76 1015.2
20260508205703 57 220 5.0 8.0 0.00 0.00 0.00 76 1015.2
20260508205604 57 219 6.0 9.0 0.00 0.00 0.00 76 1015.1